Observation data for Weinert on 11/17/2019      Previous  Date       Current Mesonet Observations  Soil Data  Daily Summary Page  Observations in Plain Language
KWE1 170600Z 17009KT 11/01 A2998 RMK A01 T01070013  RH  052%=      5-min Rain = 0
KWE1 170601Z 17009KT 11/01 A2998 RMK A01 T01070013  RH  052%=      5-min Rain = 0
KWE1 170602Z 17008KT 11/01 A2998 RMK A01 T01070013  RH  052%=      5-min Rain = 0
KWE1 170603Z 17009KT 11/01 A2998 RMK A01 T01070013  RH  052%=      5-min Rain = 0
KWE1 170604Z 17008KT 11/01 A2998 RMK A01 T01070013  RH  052%=      5-min Rain = 0
KWE1 170605Z 17008KT 11/01 A2998 RMK A01 T01060013  RH  052%=      5-min Rain = 0
KWE1 170606Z 17009KT 11/01 A2998 RMK A01 T01050012  RH  052%=      5-min Rain = 0
KWE1 170607Z 17008KT 11/01 A2998 RMK A01 T01050012  RH  053%=      5-min Rain = 0
KWE1 170608Z 17008KT 10/01 A2998 RMK A01 T01040012  RH  053%=      5-min Rain = 0
KWE1 170609Z 17008KT 10/01 A2998 RMK A01 T01040013  RH  053%=      5-min Rain = 0
KWE1 170610Z 17008KT 10/01 A2998 RMK A01 T01040013  RH  053%=      5-min Rain = 0
KWE1 170611Z 17008KT 10/01 A2998 RMK A01 T01030013  RH  054%=      5-min Rain = 0
KWE1 170612Z 17008KT 10/01 A2998 RMK A01 T01030013  RH  054%=      5-min Rain = 0
KWE1 170613Z 17008KT 10/01 A2998 RMK A01 T01030013  RH  054%=      5-min Rain = 0
KWE1 170614Z 17007KT 10/01 A2998 RMK A01 T01020013  RH  054%=      5-min Rain = 0
KWE1 170615Z 17008KT 10/01 A2998 RMK A01 T01020014  RH  054%=      5-min Rain = 0
KWE1 170616Z 17008KT 10/01 A2998 RMK A01 T01020014  RH  054%=      5-min Rain = 0
KWE1 170617Z 18008KT 10/01 A2998 RMK A01 T01020014  RH  054%=      5-min Rain = 0
KWE1 170618Z 17008KT 10/01 A2998 RMK A01 T01020014  RH  054%=      5-min Rain = 0
KWE1 170619Z 17008KT 10/01 A2998 RMK A01 T01010014  RH  055%=      5-min Rain = 0
KWE1 170620Z 18007KT 10/01 A2999 RMK A01 T01010014  RH  055%=      5-min Rain = 0
KWE1 170621Z 18007KT 10/01 A2999 RMK A01 T01010014  RH  055%=      5-min Rain = 0
KWE1 170622Z 17006KT 10/01 A2999 RMK A01 T01010014  RH  055%=      5-min Rain = 0
KWE1 170623Z 18006KT 10/01 A2999 RMK A01 T01010014  RH  055%=      5-min Rain = 0
KWE1 170624Z 18006KT 10/01 A2999 RMK A01 T01010014  RH  055%=      5-min Rain = 0
KWE1 170625Z 19005KT 10/01 A2999 RMK A01 T01010014  RH  055%=      5-min Rain = 0
KWE1 170626Z 19005KT 10/02 A2999 RMK A01 T01010015  RH  055%=      5-min Rain = 0
KWE1 170627Z 18005KT 10/02 A2999 RMK A01 T01010015  RH  055%=      5-min Rain = 0
KWE1 170628Z 18005KT 10/02 A2999 RMK A01 T01010015  RH  055%=      5-min Rain = 0
KWE1 170629Z 17003KT 10/02 A2999 RMK A01 T01000015  RH  055%=      5-min Rain = 0
KWE1 170630Z 18004KT 10/02 A2999 RMK A01 T01000015  RH  055%=      5-min Rain = 0
KWE1 170631Z 16004KT 10/01 A2999 RMK A01 T00990014  RH  056%=      5-min Rain = 0
KWE1 170632Z 17004KT 10/01 A2999 RMK A01 T00980014  RH  056%=      5-min Rain = 0
KWE1 170633Z 17004KT 10/01 A2999 RMK A01 T00980014  RH  056%=      5-min Rain = 0
KWE1 170634Z 17005KT 10/01 A2999 RMK A01 T00970014  RH  056%=      5-min Rain = 0
KWE1 170635Z 17004KT 10/01 A2999 RMK A01 T00970014  RH  056%=      5-min Rain = 0
KWE1 170636Z 17004KT 10/01 A2999 RMK A01 T00960014  RH  056%=      5-min Rain = 0
KWE1 170637Z 17004KT 10/01 A2999 RMK A01 T00960014  RH  057%=      5-min Rain = 0
KWE1 170638Z 17004KT 10/01 A2999 RMK A01 T00950013  RH  057%=      5-min Rain = 0
KWE1 170639Z 16005KT 10/01 A2999 RMK A01 T00950014  RH  057%=      5-min Rain = 0
KWE1 170640Z 16005KT 09/01 A2999 RMK A01 T00940013  RH  057%=      5-min Rain = 0
KWE1 170641Z 16004KT 09/01 A2999 RMK A01 T00930013  RH  057%=      5-min Rain = 0
KWE1 170642Z 16004KT 09/01 A2999 RMK A01 T00930013  RH  057%=      5-min Rain = 0
KWE1 170643Z 16004KT 09/01 A2999 RMK A01 T00920013  RH  058%=      5-min Rain = 0
KWE1 170644Z 16004KT 09/01 A2999 RMK A01 T00920013  RH  058%=      5-min Rain = 0
KWE1 170645Z 16005KT 09/01 A2999 RMK A01 T00920014  RH  058%=      5-min Rain = 0
KWE1 170646Z 16005KT 09/01 A2999 RMK A01 T00910014  RH  058%=      5-min Rain = 0
KWE1 170647Z 16005KT 09/01 A2999 RMK A01 T00910014  RH  059%=      5-min Rain = 0
KWE1 170648Z 16005KT 09/01 A2999 RMK A01 T00910014  RH  059%=      5-min Rain = 0
KWE1 170649Z 16005KT 09/01 A2998 RMK A01 T00910014  RH  059%=      5-min Rain = 0
KWE1 170650Z 16005KT 09/01 A2998 RMK A01 T00900014  RH  059%=      5-min Rain = 0
KWE1 170651Z 16006KT 09/01 A2998 RMK A01 T00900014  RH  059%=      5-min Rain = 0
KWE1 170652Z 16006KT 09/01 A2998 RMK A01 T00890014  RH  059%=      5-min Rain = 0
KWE1 170653Z 16005KT 09/01 A2998 RMK A01 T00890014  RH  059%=      5-min Rain = 0
KWE1 170654Z 16006KT 09/01 A2998 RMK A01 T00890014  RH  059%=      5-min Rain = 0
KWE1 170655Z 16006KT 09/01 A2998 RMK A01 T00880013  RH  059%=      5-min Rain = 0
KWE1 170656Z 16006KT 09/01 A2998 RMK A01 T00880014  RH  059%=      5-min Rain = 0
KWE1 170657Z 16006KT 09/01 A2998 RMK A01 T00880014  RH  060%=      5-min Rain = 0
KWE1 170658Z 16006KT 09/01 A2998 RMK A01 T00880014  RH  060%=      5-min Rain = 0
KWE1 170659Z 16006KT 09/01 A2998 RMK A01 T00880014  RH  060%=      5-min Rain = 0
KWE1 170700Z 15006KT 09/01 A2998 RMK A01 T00880014  RH  060%=      5-min Rain = 0
KWE1 170701Z 16006KT 09/01 A2998 RMK A01 T00870013  RH  060%=      5-min Rain = 0
KWE1 170702Z 16006KT 09/01 A2998 RMK A01 T00870013  RH  060%=      5-min Rain = 0
KWE1 170703Z 16005KT 09/01 A2998 RMK A01 T00870013  RH  060%=      5-min Rain = 0
KWE1 170704Z 16005KT 09/01 A2998 RMK A01 T00870013  RH  060%=      5-min Rain = 0
KWE1 170705Z 16005KT 09/01 A2998 RMK A01 T00870013  RH  060%=      5-min Rain = 0
KWE1 170706Z 16005KT 09/01 A2999 RMK A01 T00860013  RH  060%=      5-min Rain = 0
KWE1 170707Z 16005KT 09/01 A2999 RMK A01 T00860013  RH  060%=      5-min Rain = 0
KWE1 170708Z 16005KT 09/01 A2999 RMK A01 T00860013  RH  060%=      5-min Rain = 0
KWE1 170709Z 16005KT 09/01 A2999 RMK A01 T00860013  RH  060%=      5-min Rain = 0
KWE1 170710Z 16005KT 09/01 A2999 RMK A01 T00860013  RH  060%=      5-min Rain = 0
KWE1 170711Z 16006KT 09/01 A2999 RMK A01 T00860013  RH  060%=      5-min Rain = 0
KWE1 170712Z 16006KT 09/01 A2999 RMK A01 T00860013  RH  060%=      5-min Rain = 0
KWE1 170713Z 15006KT 09/01 A2999 RMK A01 T00860013  RH  060%=      5-min Rain = 0
KWE1 170714Z 16005KT 09/01 A2999 RMK A01 T00860013  RH  060%=      5-min Rain = 0
KWE1 170715Z 15005KT 09/01 A2999 RMK A01 T00860013  RH  060%=      5-min Rain = 0
KWE1 170716Z 15004KT 09/01 A2999 RMK A01 T00860013  RH  060%=      5-min Rain = 0
KWE1 170717Z 15004KT 09/01 A2999 RMK A01 T00860014  RH  060%=      5-min Rain = 0
KWE1 170718Z 16004KT 09/01 A30 RMK A01 T00850014  RH  061%=      5-min Rain = 0
KWE1 170719Z 15003KT 09/01 A30 RMK A01 T00850014  RH  061%=      5-min Rain = 0
KWE1 170720Z 15003KT 09/01 A30 RMK A01 T00850014  RH  061%=      5-min Rain = 0
KWE1 170721Z 15004KT 08/01 A30 RMK A01 T00840014  RH  061%=      5-min Rain = 0
KWE1 170722Z 15003KT 08/01 A2999 RMK A01 T00840013  RH  061%=      5-min Rain = 0
KWE1 170723Z 15004KT 08/01 A2999 RMK A01 T00830013  RH  061%=      5-min Rain = 0
KWE1 170724Z 15004KT 08/01 A2999 RMK A01 T00830013  RH  062%=      5-min Rain = 0
KWE1 170725Z 15005KT 08/01 A2999 RMK A01 T00820013  RH  062%=      5-min Rain = 0
KWE1 170726Z 15005KT 08/01 A2999 RMK A01 T00820014  RH  062%=      5-min Rain = 0
KWE1 170727Z 15005KT 08/01 A2999 RMK A01 T00820013  RH  062%=      5-min Rain = 0
KWE1 170728Z 15005KT 08/01 A2999 RMK A01 T00820013  RH  062%=      5-min Rain = 0
KWE1 170729Z 15005KT 08/01 A2999 RMK A01 T00820013  RH  062%=      5-min Rain = 0
KWE1 170730Z 15005KT 08/01 A2999 RMK A01 T00820014  RH  062%=      5-min Rain = 0
KWE1 170731Z 15005KT 08/01 A2999 RMK A01 T00810014  RH  062%=      5-min Rain = 0
KWE1 170732Z 15005KT 08/01 A2999 RMK A01 T00810014  RH  062%=      5-min Rain = 0
KWE1 170733Z 16005KT 08/01 A2999 RMK A01 T00810014  RH  063%=      5-min Rain = 0
KWE1 170734Z 16004KT 08/01 A2999 RMK A01 T00810014  RH  063%=      5-min Rain = 0
KWE1 170735Z 16004KT 08/01 A2999 RMK A01 T00810014  RH  063%=      5-min Rain = 0
KWE1 170736Z 16004KT 08/01 A2999 RMK A01 T00810014  RH  063%=      5-min Rain = 0
KWE1 170737Z 16004KT 08/01 A2999 RMK A01 T00810014  RH  063%=      5-min Rain = 0
KWE1 170738Z 16004KT 08/01 A2999 RMK A01 T00810013  RH  062%=      5-min Rain = 0
KWE1 170739Z 16005KT 08/01 A2999 RMK A01 T00810013  RH  062%=      5-min Rain = 0
KWE1 170740Z 16005KT 08/01 A2999 RMK A01 T00810013  RH  062%=      5-min Rain = 0
KWE1 170741Z 15006KT 08/01 A2999 RMK A01 T00800013  RH  063%=      5-min Rain = 0
KWE1 170742Z 15005KT 08/01 A2999 RMK A01 T00800013  RH  063%=      5-min Rain = 0
KWE1 170743Z 15006KT 08/01 A2999 RMK A01 T00790013  RH  063%=      5-min Rain = 0
KWE1 170744Z 15006KT 08/01 A2999 RMK A01 T00790013  RH  063%=      5-min Rain = 0
KWE1 170745Z 15006KT 08/01 A2998 RMK A01 T00780013  RH  063%=      5-min Rain = 0
KWE1 170746Z 15006KT 08/01 A2998 RMK A01 T00780014  RH  064%=      5-min Rain = 0
KWE1 170747Z 14006KT 08/01 A2998 RMK A01 T00780013  RH  064%=      5-min Rain = 0
KWE1 170748Z 15006KT 08/01 A2998 RMK A01 T00780013  RH  064%=      5-min Rain = 0
KWE1 170749Z 15006KT 08/01 A2998 RMK A01 T00780013  RH  064%=      5-min Rain = 0
KWE1 170750Z 15006KT 08/01 A2998 RMK A01 T00770013  RH  063%=      5-min Rain = 0
KWE1 170751Z 15006KT 08/01 A2998 RMK A01 T00780013  RH  063%=      5-min Rain = 0
KWE1 170752Z 15006KT 08/01 A2998 RMK A01 T00770012  RH  063%=      5-min Rain = 0
KWE1 170753Z 15006KT 08/01 A2998 RMK A01 T00780013  RH  063%=      5-min Rain = 0
KWE1 170754Z 15006KT 08/01 A2998 RMK A01 T00780013  RH  063%=      5-min Rain = 0
KWE1 170755Z 15006KT 08/01 A2998 RMK A01 T00780013  RH  064%=      5-min Rain = 0
KWE1 170756Z 15007KT 08/01 A2998 RMK A01 T00780013  RH  064%=      5-min Rain = 0
KWE1 170757Z 15006KT 08/01 A2998 RMK A01 T00780013  RH  064%=      5-min Rain = 0
KWE1 170758Z 15006KT 08/01 A2998 RMK A01 T00770013  RH  064%=      5-min Rain = 0
KWE1 170759Z 16006KT 08/01 A2998 RMK A01 T00780014  RH  064%=      5-min Rain = 0
KWE1 170800Z 16006KT 08/01 A2998 RMK A01 T00780014  RH  064%=      5-min Rain = 0
KWE1 170801Z 16005KT 08/01 A2998 RMK A01 T00780013  RH  064%=      5-min Rain = 0
KWE1 170802Z 16004KT 08/01 A2998 RMK A01 T00780014  RH  064%=      5-min Rain = 0
KWE1 170803Z 16005KT 08/01 A2998 RMK A01 T00780013  RH  064%=      5-min Rain = 0
KWE1 170804Z 16005KT 08/01 A2998 RMK A01 T00790014  RH  064%=      5-min Rain = 0
KWE1 170805Z 16006KT 08/01 A2998 RMK A01 T00790014  RH  064%=      5-min Rain = 0
KWE1 170806Z 16005KT 08/01 A2998 RMK A01 T00790014  RH  063%=      5-min Rain = 0
KWE1 170807Z 16006KT 08/01 A2998 RMK A01 T00790014  RH  063%=      5-min Rain = 0
KWE1 170808Z 16005KT 08/01 A2998 RMK A01 T00800014  RH  063%=      5-min Rain = 0
KWE1 170809Z 16005KT 08/01 A2998 RMK A01 T00800014  RH  063%=      5-min Rain = 0
KWE1 170810Z 16005KT 08/01 A2998 RMK A01 T00810014  RH  063%=      5-min Rain = 0
KWE1 170811Z 16005KT 08/01 A2998 RMK A01 T00800014  RH  063%=      5-min Rain = 0
KWE1 170812Z 16005KT 08/01 A2998 RMK A01 T00800014  RH  063%=      5-min Rain = 0
KWE1 170813Z 16006KT 08/01 A2998 RMK A01 T00800014  RH  063%=      5-min Rain = 0
KWE1 170814Z 16005KT 08/01 A2998 RMK A01 T00800014  RH  063%=      5-min Rain = 0
KWE1 170815Z 16006KT 08/01 A2998 RMK A01 T00800014  RH  063%=      5-min Rain = 0
KWE1 170816Z 16006KT 08/01 A2998 RMK A01 T00800014  RH  063%=      5-min Rain = 0
KWE1 170817Z 16005KT 08/01 A2999 RMK A01 T00800014  RH  063%=      5-min Rain = 0
KWE1 170818Z 16005KT 08/02 A2999 RMK A01 T00800015  RH  063%=      5-min Rain = 0
KWE1 170819Z 15004KT 08/02 A2998 RMK A01 T00800015  RH  063%=      5-min Rain = 0
KWE1 170820Z 15004KT 08/02 A2998 RMK A01 T00800015  RH  064%=      5-min Rain = 0
KWE1 170821Z 16004KT 08/02 A2998 RMK A01 T00790015  RH  064%=      5-min Rain = 0
KWE1 170822Z 16004KT 08/02 A2998 RMK A01 T00790015  RH  064%=      5-min Rain = 0
KWE1 170823Z 16003KT 08/02 A2998 RMK A01 T00790015  RH  064%=      5-min Rain = 0
KWE1 170824Z 17003KT 08/02 A2998 RMK A01 T00780015  RH  064%=      5-min Rain = 0
KWE1 170825Z 17004KT 08/02 A2998 RMK A01 T00790015  RH  064%=      5-min Rain = 0
KWE1 170826Z 16005KT 08/02 A2998 RMK A01 T00790015  RH  064%=      5-min Rain = 0
KWE1 170827Z 17005KT 08/02 A2999 RMK A01 T00780015  RH  064%=      5-min Rain = 0
KWE1 170828Z 16005KT 08/02 A2999 RMK A01 T00790015  RH  064%=      5-min Rain = 0
KWE1 170829Z 16005KT 08/02 A2999 RMK A01 T00780015  RH  064%=      5-min Rain = 0
KWE1 170830Z 16005KT 08/02 A2999 RMK A01 T00780015  RH  064%=      5-min Rain = 0
KWE1 170831Z 16005KT 08/02 A2999 RMK A01 T00780015  RH  064%=      5-min Rain = 0
KWE1 170832Z 16005KT 08/02 A2999 RMK A01 T00780015  RH  064%=      5-min Rain = 0
KWE1 170833Z 15005KT 08/02 A2999 RMK A01 T00780015  RH  065%=      5-min Rain = 0
KWE1 170834Z 15005KT 08/02 A2999 RMK A01 T00780015  RH  065%=      5-min Rain = 0
KWE1 170835Z 15005KT 08/02 A2999 RMK A01 T00780016  RH  065%=      5-min Rain = 0
KWE1 170836Z 15005KT 08/02 A2999 RMK A01 T00770016  RH  065%=      5-min Rain = 0
KWE1 170837Z 15005KT 08/02 A2999 RMK A01 T00770016  RH  065%=      5-min Rain = 0
KWE1 170838Z 15005KT 08/02 A2999 RMK A01 T00770016  RH  065%=      5-min Rain = 0
KWE1 170839Z 15005KT 08/02 A2999 RMK A01 T00770017  RH  065%=      5-min Rain = 0
KWE1 170840Z 15005KT 08/02 A2999 RMK A01 T00770017  RH  066%=      5-min Rain = 0
KWE1 170841Z 15005KT 08/02 A2999 RMK A01 T00770017  RH  066%=      5-min Rain = 0
KWE1 170842Z 15004KT 08/02 A2999 RMK A01 T00770018  RH  066%=      5-min Rain = 0
KWE1 170843Z 15005KT 08/02 A2999 RMK A01 T00770017  RH  066%=      5-min Rain = 0
KWE1 170844Z 15005KT 08/02 A2999 RMK A01 T00760018  RH  066%=      5-min Rain = 0
KWE1 170845Z 15005KT 08/02 A2999 RMK A01 T00760018  RH  067%=      5-min Rain = 0
KWE1 170846Z 15006KT 08/02 A2998 RMK A01 T00750018  RH  067%=      5-min Rain = 0
KWE1 170847Z 16006KT 08/02 A2998 RMK A01 T00750018  RH  067%=      5-min Rain = 0
KWE1 170848Z 15006KT 08/02 A2998 RMK A01 T00750018  RH  067%=      5-min Rain = 0
KWE1 170849Z 15005KT 08/02 A2998 RMK A01 T00750018  RH  067%=      5-min Rain = 0
KWE1 170850Z 16005KT 08/02 A2998 RMK A01 T00750019  RH  067%=      5-min Rain = 0
KWE1 170851Z 16006KT 08/02 A2998 RMK A01 T00760019  RH  067%=      5-min Rain = 0
KWE1 170852Z 16006KT 08/02 A2998 RMK A01 T00760020  RH  067%=      5-min Rain = 0
KWE1 170853Z 16006KT 08/02 A2998 RMK A01 T00770020  RH  067%=      5-min Rain = 0
KWE1 170854Z 16006KT 08/02 A2998 RMK A01 T00780020  RH  067%=      5-min Rain = 0
KWE1 170855Z 16007KT 08/02 A2998 RMK A01 T00790020  RH  067%=      5-min Rain = 0
KWE1 170856Z 15007KT 08/02 A2998 RMK A01 T00790021  RH  066%=      5-min Rain = 0
KWE1 170857Z 15007KT 08/02 A2997 RMK A01 T00800021  RH  066%=      5-min Rain = 0
KWE1 170858Z 16008KT 08/02 A2997 RMK A01 T00800021  RH  066%=      5-min Rain = 0
KWE1 170859Z 16008KT 08/02 A2997 RMK A01 T00800021  RH  066%=      5-min Rain = 0
KWE1 170900Z 16007KT 08/02 A2997 RMK A01 T00800021  RH  066%=      5-min Rain = 0
KWE1 170901Z 15007KT 08/02 A2998 RMK A01 T00810021  RH  066%=      5-min Rain = 0
KWE1 170902Z 15007KT 08/02 A2997 RMK A01 T00810021  RH  066%=      5-min Rain = 0
KWE1 170903Z 15007KT 08/02 A2997 RMK A01 T00810021  RH  066%=      5-min Rain = 0
KWE1 170904Z 15007KT 08/02 A2997 RMK A01 T00810021  RH  066%=      5-min Rain = 0
KWE1 170905Z 15008KT 08/02 A2997 RMK A01 T00810022  RH  066%=      5-min Rain = 0
KWE1 170906Z 15006KT 08/02 A2997 RMK A01 T00810022  RH  066%=      5-min Rain = 0
KWE1 170907Z 15006KT 08/02 A2997 RMK A01 T00810021  RH  066%=      5-min Rain = 0
KWE1 170908Z 15006KT 08/02 A2997 RMK A01 T00810022  RH  066%=      5-min Rain = 0
KWE1 170909Z 14006KT 08/02 A2997 RMK A01 T00810022  RH  067%=      5-min Rain = 0
KWE1 170910Z 15007KT 08/02 A2997 RMK A01 T00810022  RH  067%=      5-min Rain = 0
KWE1 170911Z 15008KT 08/02 A2997 RMK A01 T00800022  RH  067%=      5-min Rain = 0
KWE1 170912Z 15007KT 08/02 A2997 RMK A01 T00790021  RH  067%=      5-min Rain = 0
KWE1 170913Z 15007KT 08/02 A2997 RMK A01 T00790021  RH  067%=      5-min Rain = 0
KWE1 170914Z 16006KT 08/02 A2997 RMK A01 T00780021  RH  067%=      5-min Rain = 0
KWE1 170915Z 16006KT 08/02 A2997 RMK A01 T00790022  RH  067%=      5-min Rain = 0
KWE1 170916Z 16006KT 08/02 A2997 RMK A01 T00780022  RH  068%=      5-min Rain = 0
KWE1 170917Z 16007KT 08/02 A2997 RMK A01 T00780022  RH  068%=      5-min Rain = 0
KWE1 170918Z 16007KT 08/02 A2997 RMK A01 T00790023  RH  068%=      5-min Rain = 0
KWE1 170919Z 16007KT 08/02 A2997 RMK A01 T00790022  RH  067%=      5-min Rain = 0
KWE1 170920Z 16007KT 08/02 A2997 RMK A01 T00790022  RH  067%=      5-min Rain = 0
KWE1 170921Z 16007KT 08/02 A2998 RMK A01 T00800023  RH  067%=      5-min Rain = 0
KWE1 170922Z 16007KT 08/02 A2998 RMK A01 T00790022  RH  067%=      5-min Rain = 0
KWE1 170923Z 16007KT 08/02 A2998 RMK A01 T00790022  RH  067%=      5-min Rain = 0
KWE1 170924Z 16006KT 08/02 A2998 RMK A01 T00780022  RH  068%=      5-min Rain = 0
KWE1 170925Z 16006KT 08/02 A2998 RMK A01 T00780022  RH  068%=      5-min Rain = 0
KWE1 170926Z 16006KT 08/02 A2998 RMK A01 T00780022  RH  068%=      5-min Rain = 0
KWE1 170927Z 16007KT 08/02 A2998 RMK A01 T00770022  RH  068%=      5-min Rain = 0
KWE1 170928Z 16007KT 08/02 A2998 RMK A01 T00760022  RH  068%=      5-min Rain = 0
KWE1 170929Z 16006KT 08/02 A2998 RMK A01 T00760022  RH  069%=      5-min Rain = 0
KWE1 170930Z 16007KT 08/02 A2998 RMK A01 T00760022  RH  069%=      5-min Rain = 0
KWE1 170931Z 16007KT 08/02 A2998 RMK A01 T00750022  RH  069%=      5-min Rain = 0
KWE1 170932Z 16006KT 08/02 A2998 RMK A01 T00750023  RH  069%=      5-min Rain = 0
KWE1 170933Z 16006KT 08/02 A2998 RMK A01 T00750023  RH  069%=      5-min Rain = 0
KWE1 170934Z 16006KT 08/02 A2998 RMK A01 T00750023  RH  070%=      5-min Rain = 0
KWE1 170935Z 16006KT 08/02 A2998 RMK A01 T00750023  RH  070%=      5-min Rain = 0
KWE1 170936Z 16005KT 08/02 A2998 RMK A01 T00750023  RH  070%=      5-min Rain = 0
KWE1 170937Z 16006KT 08/02 A2998 RMK A01 T00750023  RH  070%=      5-min Rain = 0
KWE1 170938Z 16005KT 07/02 A2998 RMK A01 T00740023  RH  070%=      5-min Rain = 0
KWE1 170939Z 16005KT 07/02 A2998 RMK A01 T00740023  RH  070%=      5-min Rain = 0
KWE1 170940Z 16005KT 07/02 A2998 RMK A01 T00740023  RH  070%=      5-min Rain = 0
KWE1 170941Z 16005KT 07/02 A2998 RMK A01 T00740023  RH  070%=      5-min Rain = 0
KWE1 170942Z 16006KT 07/02 A2998 RMK A01 T00730023  RH  070%=      5-min Rain = 0
KWE1 170943Z 16006KT 07/02 A2998 RMK A01 T00730022  RH  070%=      5-min Rain = 0
KWE1 170944Z 16005KT 07/02 A2998 RMK A01 T00730023  RH  071%=      5-min Rain = 0
KWE1 170945Z 16006KT 07/02 A2998 RMK A01 T00720023  RH  071%=      5-min Rain = 0
KWE1 170946Z 16006KT 07/02 A2998 RMK A01 T00720023  RH  071%=      5-min Rain = 0
KWE1 170947Z 16006KT 07/02 A2998 RMK A01 T00720023  RH  071%=      5-min Rain = 0
KWE1 170948Z 16006KT 07/02 A2998 RMK A01 T00720023  RH  071%=      5-min Rain = 0
KWE1 170949Z 16006KT 07/02 A2998 RMK A01 T00710022  RH  071%=      5-min Rain = 0
KWE1 170950Z 16006KT 07/02 A2998 RMK A01 T00700022  RH  071%=      5-min Rain = 0
KWE1 170951Z 16006KT 07/02 A2998 RMK A01 T00700022  RH  071%=      5-min Rain = 0
KWE1 170952Z 16005KT 07/02 A2998 RMK A01 T00700022  RH  072%=      5-min Rain = 0
KWE1 170953Z 16005KT 07/02 A2998 RMK A01 T00690022  RH  072%=      5-min Rain = 0
KWE1 170954Z 16005KT 07/02 A2998 RMK A01 T00690022  RH  072%=      5-min Rain = 0
KWE1 170955Z 16005KT 07/02 A2998 RMK A01 T00680022  RH  072%=      5-min Rain = 0
KWE1 170956Z 16005KT 07/02 A2998 RMK A01 T00680022  RH  072%=      5-min Rain = 0
KWE1 170957Z 17006KT 07/02 A2998 RMK A01 T00690022  RH  072%=      5-min Rain = 0
KWE1 170958Z 17006KT 07/02 A2998 RMK A01 T00690023  RH  073%=      5-min Rain = 0
KWE1 170959Z 17006KT 07/02 A2998 RMK A01 T00680022  RH  072%=      5-min Rain = 0
KWE1 171000Z 17007KT 07/02 A2998 RMK A01 T00680022  RH  072%=      5-min Rain = 0
KWE1 171001Z 17007KT 07/02 A2998 RMK A01 T00680022  RH  072%=      5-min Rain = 0
KWE1 171002Z 17006KT 07/02 A2998 RMK A01 T00680022  RH  072%=      5-min Rain = 0
KWE1 171003Z 17006KT 07/02 A2998 RMK A01 T00670021  RH  073%=      5-min Rain = 0
KWE1 171004Z 16006KT 07/02 A2998 RMK A01 T00670021  RH  073%=      5-min Rain = 0
KWE1 171005Z 17006KT 07/02 A2998 RMK A01 T00660021  RH  073%=      5-min Rain = 0
KWE1 171006Z 17005KT 07/02 A2998 RMK A01 T00660021  RH  073%=      5-min Rain = 0
KWE1 171007Z 17006KT 07/02 A2998 RMK A01 T00650021  RH  073%=      5-min Rain = 0
KWE1 171008Z 17005KT 07/02 A2998 RMK A01 T00650021  RH  073%=      5-min Rain = 0
KWE1 171009Z 17005KT 07/02 A2998 RMK A01 T00650021  RH  074%=      5-min Rain = 0
KWE1 171010Z 17005KT 07/02 A2999 RMK A01 T00650021  RH  074%=      5-min Rain = 0
KWE1 171011Z 17006KT 06/02 A2998 RMK A01 T00640021  RH  074%=      5-min Rain = 0
KWE1 171012Z 16006KT 06/02 A2998 RMK A01 T00640021  RH  074%=      5-min Rain = 0
KWE1 171013Z 16005KT 06/02 A2998 RMK A01 T00640021  RH  074%=      5-min Rain = 0
KWE1 171014Z 16005KT 06/02 A2999 RMK A01 T00640022  RH  074%=      5-min Rain = 0
KWE1 171015Z 16005KT 06/02 A2999 RMK A01 T00640022  RH  074%=      5-min Rain = 0
KWE1 171016Z 16005KT 06/02 A2999 RMK A01 T00640022  RH  074%=      5-min Rain = 0
KWE1 171017Z 16005KT 06/02 A2999 RMK A01 T00640022  RH  075%=      5-min Rain = 0
KWE1 171018Z 17004KT 06/02 A2999 RMK A01 T00640022  RH  075%=      5-min Rain = 0
KWE1 171019Z 16004KT 06/02 A2999 RMK A01 T00640022  RH  075%=      5-min Rain = 0
KWE1 171020Z 16004KT 06/02 A2999 RMK A01 T00630021  RH  075%=      5-min Rain = 0
KWE1 171021Z 16004KT 06/02 A2999 RMK A01 T00630021  RH  075%=      5-min Rain = 0
KWE1 171022Z 16004KT 06/02 A2999 RMK A01 T00630022  RH  075%=      5-min Rain = 0
KWE1 171023Z 17005KT 06/02 A2999 RMK A01 T00630021  RH  075%=      5-min Rain = 0
KWE1 171024Z 17005KT 06/02 A2999 RMK A01 T00620021  RH  075%=      5-min Rain = 0
KWE1 171025Z 17004KT 06/02 A2999 RMK A01 T00620021  RH  075%=      5-min Rain = 0
KWE1 171026Z 17004KT 06/02 A2999 RMK A01 T00620021  RH  075%=      5-min Rain = 0
KWE1 171027Z 18003KT 06/02 A2999 RMK A01 T00620021  RH  075%=      5-min Rain = 0
KWE1 171028Z 18002KT 06/02 A2999 RMK A01 T00610021  RH  075%=      5-min Rain = 0
KWE1 171029Z 20001KT 06/02 A2999 RMK A01 T00610021  RH  075%=      5-min Rain = 0
KWE1 171030Z 23001KT 06/02 A30 RMK A01 T00610022  RH  076%=      5-min Rain = 0
KWE1 171031Z 27001KT 06/02 A2999 RMK A01 T00610022  RH  076%=      5-min Rain = 0
KWE1 171032Z 28000KT 06/02 A2999 RMK A01 T00620022  RH  075%=      5-min Rain = 0
KWE1 171033Z 29000KT 06/02 A2999 RMK A01 T00620021  RH  075%=      5-min Rain = 0
KWE1 171034Z 00000KT 06/02 A2999 RMK A01 T00610021  RH  075%=      5-min Rain = 0
KWE1 171035Z 00000KT 06/02 A2999 RMK A01 T00610021  RH  075%=      5-min Rain = 0
KWE1 171036Z 00000KT 06/02 A2999 RMK A01 T00610020  RH  075%=      5-min Rain = 0
KWE1 171037Z 26000KT 06/02 A2999 RMK A01 T00610020  RH  075%=      5-min Rain = 0
KWE1 171038Z 27001KT 06/02 A2999 RMK A01 T00600020  RH  076%=      5-min Rain = 0
KWE1 171039Z 25001KT 06/02 A2999 RMK A01 T00600021  RH  076%=      5-min Rain = 0
KWE1 171040Z 22002KT 06/02 A2999 RMK A01 T00600020  RH  076%=      5-min Rain = 0
KWE1 171041Z 21002KT 06/02 A2999 RMK A01 T00590020  RH  076%=      5-min Rain = 0
KWE1 171042Z 20002KT 06/02 A2999 RMK A01 T00590020  RH  076%=      5-min Rain = 0
KWE1 171043Z 20002KT 06/02 A2999 RMK A01 T00590020  RH  076%=      5-min Rain = 0
KWE1 171044Z 20001KT 06/02 A2999 RMK A01 T00590020  RH  076%=      5-min Rain = 0
KWE1 171045Z 20001KT 06/02 A2999 RMK A01 T00590020  RH  076%=      5-min Rain = 0
KWE1 171046Z 19002KT 06/02 A2999 RMK A01 T00590020  RH  076%=      5-min Rain = 0
KWE1 171047Z 19002KT 06/02 A2999 RMK A01 T00590021  RH  077%=      5-min Rain = 0
KWE1 171048Z 19003KT 06/02 A2999 RMK A01 T00590022  RH  077%=      5-min Rain = 0
KWE1 171049Z 19003KT 06/02 A2999 RMK A01 T00600022  RH  077%=      5-min Rain = 0
KWE1 171050Z 18003KT 06/02 A2999 RMK A01 T00590020  RH  076%=      5-min Rain = 0
KWE1 171051Z 18004KT 06/02 A2999 RMK A01 T00570017  RH  075%=      5-min Rain = 0
KWE1 171052Z 18004KT 06/02 A2999 RMK A01 T00550015  RH  075%=      5-min Rain = 0
KWE1 171053Z 18003KT 05/02 A2999 RMK A01 T00540015  RH  076%=      5-min Rain = 0
KWE1 171054Z 18003KT 05/02 A2999 RMK A01 T00530015  RH  077%=      5-min Rain = 0
KWE1 171055Z 18003KT 05/02 A2999 RMK A01 T00520015  RH  077%=      5-min Rain = 0
KWE1 171056Z 17003KT 05/02 A2999 RMK A01 T00520017  RH  078%=      5-min Rain = 0
KWE1 171057Z 17003KT 05/02 A2999 RMK A01 T00510017  RH  079%=      5-min Rain = 0
KWE1 171058Z 18003KT 05/02 A2999 RMK A01 T00510017  RH  079%=      5-min Rain = 0
KWE1 171059Z 18003KT 05/02 A2999 RMK A01 T00510018  RH  079%=      5-min Rain = 0
KWE1 171100Z 19003KT 05/02 A2999 RMK A01 T00510018  RH  079%=      5-min Rain = 0
KWE1 171101Z 20003KT 05/02 A2999 RMK A01 T00510018  RH  079%=      5-min Rain = 0
KWE1 171102Z 19003KT 05/02 A2999 RMK A01 T00510019  RH  079%=      5-min Rain = 0
KWE1 171103Z 20003KT 05/02 A2999 RMK A01 T00510018  RH  079%=      5-min Rain = 0
KWE1 171104Z 20003KT 05/02 A2999 RMK A01 T00510018  RH  079%=      5-min Rain = 0
KWE1 171105Z 21003KT 05/02 A2999 RMK A01 T00510019  RH  080%=      5-min Rain = 0
KWE1 171106Z 20003KT 05/02 A2999 RMK A01 T00510019  RH  079%=      5-min Rain = 0
KWE1 171107Z 20003KT 05/02 A2999 RMK A01 T00520020  RH  080%=      5-min Rain = 0
KWE1 171108Z 20004KT 05/02 A2999 RMK A01 T00530021  RH  080%=      5-min Rain = 0
KWE1 171109Z 19004KT 05/02 A2999 RMK A01 T00530020  RH  079%=      5-min Rain = 0
KWE1 171110Z 19004KT 05/02 A2999 RMK A01 T00530020  RH  079%=      5-min Rain = 0
KWE1 171111Z 19004KT 05/02 A2999 RMK A01 T00530020  RH  079%=      5-min Rain = 0
KWE1 171112Z 19004KT 05/02 A2999 RMK A01 T00520019  RH  079%=      5-min Rain = 0
KWE1 171113Z 19004KT 05/02 A2999 RMK A01 T00520019  RH  079%=      5-min Rain = 0
KWE1 171114Z 19004KT 05/02 A2999 RMK A01 T00530021  RH  080%=      5-min Rain = 0
KWE1 171115Z 19004KT 05/02 A2999 RMK A01 T00530021  RH  080%=      5-min Rain = 0
KWE1 171116Z 19004KT 05/02 A2999 RMK A01 T00530021  RH  080%=      5-min Rain = 0
KWE1 171117Z 19004KT 05/02 A2999 RMK A01 T00540021  RH  079%=      5-min Rain = 0
KWE1 171118Z 20004KT 05/02 A2999 RMK A01 T00540021  RH  079%=      5-min Rain = 0
KWE1 171119Z 20004KT 05/02 A2999 RMK A01 T00540021  RH  079%=      5-min Rain = 0
KWE1 171120Z 20004KT 05/02 A2999 RMK A01 T00540021  RH  079%=      5-min Rain = 0
KWE1 171121Z 19004KT 05/02 A2999 RMK A01 T00530020  RH  079%=      5-min Rain = 0
KWE1 171122Z 19004KT 05/02 A2999 RMK A01 T00530020  RH  079%=      5-min Rain = 0
KWE1 171123Z 19004KT 05/02 A2999 RMK A01 T00520019  RH  079%=      5-min Rain = 0
KWE1 171124Z 20004KT 05/02 A2999 RMK A01 T00520019  RH  080%=      5-min Rain = 0
KWE1 171125Z 20004KT 05/02 A2999 RMK A01 T00510019  RH  080%=      5-min Rain = 0
KWE1 171126Z 20005KT 05/02 A2999 RMK A01 T00510019  RH  080%=      5-min Rain = 0
KWE1 171127Z 20005KT 05/02 A2999 RMK A01 T00500019  RH  080%=      5-min Rain = 0
KWE1 171128Z 20005KT 05/02 A2999 RMK A01 T00490018  RH  080%=      5-min Rain = 0
KWE1 171129Z 20004KT 05/02 A2999 RMK A01 T00480017  RH  080%=      5-min Rain = 0
KWE1 171130Z 20004KT 05/02 A2999 RMK A01 T00480017  RH  080%=      5-min Rain = 0
KWE1 171131Z 20004KT 05/02 A2999 RMK A01 T00470017  RH  081%=      5-min Rain = 0
KWE1 171132Z 20004KT 05/02 A2999 RMK A01 T00480018  RH  081%=      5-min Rain = 0
KWE1 171133Z 21003KT 05/02 A2999 RMK A01 T00470018  RH  081%=      5-min Rain = 0
KWE1 171134Z 21003KT 05/02 A2999 RMK A01 T00470018  RH  081%=      5-min Rain = 0
KWE1 171135Z 21003KT 05/02 A2999 RMK A01 T00460018  RH  082%=      5-min Rain = 0
KWE1 171136Z 21004KT 05/02 A2999 RMK A01 T00460018  RH  082%=      5-min Rain = 0
KWE1 171137Z 21004KT 05/02 A2999 RMK A01 T00460018  RH  082%=      5-min Rain = 0
KWE1 171138Z 21004KT 05/02 A2999 RMK A01 T00460016  RH  081%=      5-min Rain = 0
KWE1 171139Z 21004KT 05/02 A2999 RMK A01 T00450015  RH  081%=      5-min Rain = 0
KWE1 171140Z 22004KT 05/02 A2999 RMK A01 T00450016  RH  081%=      5-min Rain = 0
KWE1 171141Z 21004KT 05/02 A2999 RMK A01 T00450016  RH  082%=      5-min Rain = 0
KWE1 171142Z 21005KT 05/02 A2999 RMK A01 T00450017  RH  082%=      5-min Rain = 0
KWE1 171143Z 21005KT 05/02 A2999 RMK A01 T00450017  RH  082%=      5-min Rain = 0
KWE1 171144Z 22004KT 05/02 A30 RMK A01 T00450017  RH  082%=      5-min Rain = 0
KWE1 171145Z 23004KT 05/02 A30 RMK A01 T00450017  RH  082%=      5-min Rain = 0
KWE1 171146Z 23004KT 05/02 A30 RMK A01 T00450017  RH  082%=      5-min Rain = 0
KWE1 171147Z 22004KT 05/02 A30 RMK A01 T00450018  RH  082%=      5-min Rain = 0
KWE1 171148Z 22004KT 05/02 A30 RMK A01 T00450017  RH  082%=      5-min Rain = 0
KWE1 171149Z 24004KT 05/02 A30 RMK A01 T00450018  RH  082%=      5-min Rain = 0
KWE1 171150Z 24004KT 05/02 A30 RMK A01 T00450017  RH  082%=      5-min Rain = 0
KWE1 171151Z 25004KT 05/02 A30 RMK A01 T00450018  RH  082%=      5-min Rain = 0
KWE1 171152Z 24004KT 05/02 A30 RMK A01 T00450018  RH  082%=      5-min Rain = 0
KWE1 171153Z 22004KT 05/02 A30 RMK A01 T00460018  RH  082%=      5-min Rain = 0
KWE1 171154Z 23004KT 05/02 A30 RMK A01 T00450017  RH  082%=      5-min Rain = 0
KWE1 171155Z 23004KT 05/02 A30 RMK A01 T00460018  RH  082%=      5-min Rain = 0
KWE1 171156Z 23004KT 05/02 A30 RMK A01 T00460018  RH  082%=      5-min Rain = 0
KWE1 171157Z 24004KT 05/02 A30 RMK A01 T00460018  RH  082%=      5-min Rain = 0
KWE1 171158Z 23005KT 05/02 A3001 RMK A01 T00460018  RH  082%=      5-min Rain = 0
KWE1 171159Z 23005KT 05/02 A3001 RMK A01 T00470018  RH  082%=      5-min Rain = 0
KWE1 171200Z 24005KT 05/02 A3001 RMK A01 T00460017  RH  082%=      5-min Rain = 0
KWE1 171201Z 24005KT 05/02 A3001 RMK A01 T00450017  RH  082%=      5-min Rain = 0
KWE1 171202Z 24004KT 05/02 A3001 RMK A01 T00460018  RH  082%=      5-min Rain = 0
KWE1 171203Z 27003KT 05/02 A3001 RMK A01 T00460017  RH  082%=      5-min Rain = 0
KWE1 171204Z 26003KT 05/02 A3001 RMK A01 T00450017  RH  082%=      5-min Rain = 0
KWE1 171205Z 26003KT 04/02 A3001 RMK A01 T00440016  RH  082%=      5-min Rain = 0
KWE1 171206Z 24002KT 04/02 A3001 RMK A01 T00440015  RH  082%=      5-min Rain = 0
KWE1 171207Z 24002KT 04/02 A3001 RMK A01 T00430015  RH  082%=      5-min Rain = 0
KWE1 171208Z 25003KT 04/01 A3001 RMK A01 T00420014  RH  082%=      5-min Rain = 0
KWE1 171209Z 24003KT 04/01 A3001 RMK A01 T00420014  RH  082%=      5-min Rain = 0
KWE1 171210Z 24003KT 04/01 A3001 RMK A01 T00420014  RH  082%=      5-min Rain = 0
KWE1 171211Z 25002KT 04/02 A3001 RMK A01 T00410015  RH  083%=      5-min Rain = 0
KWE1 171212Z 24003KT 04/02 A3001 RMK A01 T00410015  RH  083%=      5-min Rain = 0
KWE1 171213Z 23004KT 04/02 A3001 RMK A01 T00410015  RH  083%=      5-min Rain = 0
KWE1 171214Z 24004KT 04/02 A3001 RMK A01 T00420015  RH  083%=      5-min Rain = 0
KWE1 171215Z 24003KT 04/02 A3002 RMK A01 T00410015  RH  083%=      5-min Rain = 0
KWE1 171216Z 25004KT 04/01 A3002 RMK A01 T00400014  RH  083%=      5-min Rain = 0
KWE1 171217Z 24004KT 04/01 A3002 RMK A01 T00400013  RH  083%=      5-min Rain = 0
KWE1 171218Z 24004KT 04/01 A3002 RMK A01 T00400014  RH  083%=      5-min Rain = 0
KWE1 171219Z 22004KT 04/01 A3001 RMK A01 T00400014  RH  083%=      5-min Rain = 0
KWE1 171220Z 22004KT 04/01 A3001 RMK A01 T00400014  RH  083%=      5-min Rain = 0
KWE1 171221Z 23003KT 04/01 A3001 RMK A01 T00390013  RH  083%=      5-min Rain = 0
KWE1 171222Z 23003KT 04/01 A3001 RMK A01 T00390013  RH  083%=      5-min Rain = 0
KWE1 171223Z 22003KT 04/01 A3001 RMK A01 T00390013  RH  083%=      5-min Rain = 0
KWE1 171224Z 23003KT 04/01 A3001 RMK A01 T00390013  RH  084%=      5-min Rain = 0
KWE1 171225Z 23004KT 04/01 A3002 RMK A01 T00390014  RH  084%=      5-min Rain = 0
KWE1 171226Z 22004KT 04/01 A3002 RMK A01 T00390014  RH  084%=      5-min Rain = 0
KWE1 171227Z 22004KT 04/01 A3002 RMK A01 T00380014  RH  084%=      5-min Rain = 0
KWE1 171228Z 22004KT 04/01 A3001 RMK A01 T00390014  RH  084%=      5-min Rain = 0
KWE1 171229Z 24003KT 04/01 A3002 RMK A01 T00390014  RH  084%=      5-min Rain = 0
KWE1 171230Z 24003KT 04/01 A3002 RMK A01 T00380014  RH  084%=      5-min Rain = 0
KWE1 171231Z 23004KT 04/01 A3002 RMK A01 T00380014  RH  084%=      5-min Rain = 0
KWE1 171232Z 23003KT 04/01 A3002 RMK A01 T00380014  RH  084%=      5-min Rain = 0
KWE1 171233Z 22004KT 04/01 A3002 RMK A01 T00370013  RH  084%=      5-min Rain = 0
KWE1 171234Z 22004KT 04/01 A3002 RMK A01 T00360012  RH  084%=      5-min Rain = 0
KWE1 171235Z 22004KT 04/01 A3002 RMK A01 T00360012  RH  084%=      5-min Rain = 0
KWE1 171236Z 22004KT 04/01 A3002 RMK A01 T00360013  RH  085%=      5-min Rain = 0
KWE1 171237Z 22005KT 04/01 A3002 RMK A01 T00360013  RH  085%=      5-min Rain = 0
KWE1 171238Z 21005KT 04/01 A3002 RMK A01 T00350013  RH  085%=      5-min Rain = 0
KWE1 171239Z 21005KT 04/01 A3002 RMK A01 T00360013  RH  085%=      5-min Rain = 0
KWE1 171240Z 21005KT 04/01 A3002 RMK A01 T00360014  RH  085%=      5-min Rain = 0
KWE1 171241Z 22004KT 04/02 A3002 RMK A01 T00360015  RH  086%=      5-min Rain = 0
KWE1 171242Z 24003KT 04/01 A3002 RMK A01 T00360014  RH  085%=      5-min Rain = 0
KWE1 171243Z 27002KT 04/01 A3002 RMK A01 T00370014  RH  085%=      5-min Rain = 0
KWE1 171244Z 26002KT 04/01 A3002 RMK A01 T00360013  RH  085%=      5-min Rain = 0
KWE1 171245Z 27002KT 04/01 A3002 RMK A01 T00350012  RH  085%=      5-min Rain = 0
KWE1 171246Z 27002KT 04/01 A3003 RMK A01 T00350012  RH  085%=      5-min Rain = 0
KWE1 171247Z 28002KT 04/01 A3002 RMK A01 T00350012  RH  085%=      5-min Rain = 0
KWE1 171248Z 29003KT 04/01 A3003 RMK A01 T00350012  RH  085%=      5-min Rain = 0
KWE1 171249Z 26003KT 04/01 A3003 RMK A01 T00350013  RH  086%=      5-min Rain = 0
KWE1 171250Z 27003KT 04/01 A3003 RMK A01 T00350013  RH  086%=      5-min Rain = 0
KWE1 171251Z 29004KT 04/01 A3003 RMK A01 T00350013  RH  086%=      5-min Rain = 0
KWE1 171252Z 29004KT 04/01 A3003 RMK A01 T00350013  RH  086%=      5-min Rain = 0
KWE1 171253Z 28004KT 04/01 A3003 RMK A01 T00350013  RH  086%=      5-min Rain = 0
KWE1 171254Z 28004KT 03/01 A3003 RMK A01 T00340012  RH  086%=      5-min Rain = 0
KWE1 171255Z 28004KT 03/01 A3003 RMK A01 T00340012  RH  086%=      5-min Rain = 0
KWE1 171256Z 29005KT 03/01 A3003 RMK A01 T00340012  RH  086%=      5-min Rain = 0
KWE1 171257Z 29006KT 03/01 A3003 RMK A01 T00330012  RH  086%=      5-min Rain = 0
KWE1 171258Z 28006KT 03/01 A3004 RMK A01 T00330012  RH  086%=      5-min Rain = 0
KWE1 171259Z 29005KT 03/01 A3004 RMK A01 T00330013  RH  086%=      5-min Rain = 0
KWE1 171300Z 29004KT 03/01 A3004 RMK A01 T00340013  RH  087%=      5-min Rain = 0
KWE1 171301Z 30005KT 03/01 A3004 RMK A01 T00340013  RH  086%=      5-min Rain = 0
KWE1 171302Z 29005KT 03/01 A3004 RMK A01 T00340013  RH  086%=      5-min Rain = 0
KWE1 171303Z 27004KT 03/01 A3004 RMK A01 T00330012  RH  086%=      5-min Rain = 0
KWE1 171304Z 28005KT 03/01 A3004 RMK A01 T00330012  RH  086%=      5-min Rain = 0
KWE1 171305Z 28004KT 03/01 A3004 RMK A01 T00330013  RH  086%=      5-min Rain = 0
KWE1 171306Z 28004KT 03/01 A3004 RMK A01 T00340013  RH  087%=      5-min Rain = 0
KWE1 171307Z 28005KT 03/01 A3004 RMK A01 T00340013  RH  087%=      5-min Rain = 0
KWE1 171308Z 28005KT 03/01 A3004 RMK A01 T00340013  RH  087%=      5-min Rain = 0
KWE1 171309Z 27005KT 03/01 A3004 RMK A01 T00340014  RH  087%=      5-min Rain = 0
KWE1 171310Z 28004KT 03/01 A3004 RMK A01 T00340014  RH  087%=      5-min Rain = 0
KWE1 171311Z 28004KT 04/01 A3004 RMK A01 T00350014  RH  087%=      5-min Rain = 0
KWE1 171312Z 27004KT 04/01 A3004 RMK A01 T00350014  RH  087%=      5-min Rain = 0
KWE1 171313Z 27005KT 04/02 A3004 RMK A01 T00350015  RH  087%=      5-min Rain = 0
KWE1 171314Z 27005KT 04/02 A3004 RMK A01 T00360016  RH  087%=      5-min Rain = 0
KWE1 171315Z 28004KT 04/02 A3004 RMK A01 T00360015  RH  087%=      5-min Rain = 0
KWE1 171316Z 27005KT 04/02 A3004 RMK A01 T00360015  RH  087%=      5-min Rain = 0
KWE1 171317Z 28005KT 04/02 A3004 RMK A01 T00350015  RH  086%=      5-min Rain = 0
KWE1 171318Z 28005KT 04/02 A3004 RMK A01 T00360016  RH  087%=      5-min Rain = 0
KWE1 171319Z 29006KT 04/02 A3005 RMK A01 T00360016  RH  087%=      5-min Rain = 0
KWE1 171320Z 29007KT 04/02 A3005 RMK A01 T00360016  RH  087%=      5-min Rain = 0
KWE1 171321Z 29007KT 04/02 A3005 RMK A01 T00370016  RH  087%=      5-min Rain = 0
KWE1 171322Z 30007KT 04/02 A3005 RMK A01 T00370016  RH  087%=      5-min Rain = 0
KWE1 171323Z 30006KT 04/02 A3005 RMK A01 T00370017  RH  087%=      5-min Rain = 0
KWE1 171324Z 29007KT 04/02 A3005 RMK A01 T00370017  RH  087%=      5-min Rain = 0
KWE1 171325Z 30007KT 04/02 A3005 RMK A01 T00380018  RH  087%=      5-min Rain = 0
KWE1 171326Z 30008KT 04/02 A3006 RMK A01 T00380018  RH  087%=      5-min Rain = 0
KWE1 171327Z 30008KT 04/02 A3006 RMK A01 T00390019  RH  087%=      5-min Rain = 0
KWE1 171328Z 31006KT 04/02 A3006 RMK A01 T00410021  RH  087%=      5-min Rain = 0
KWE1 171329Z 31007KT 04/02 A3006 RMK A01 T00410021  RH  087%=      5-min Rain = 0
KWE1 171330Z 31007KT 04/02 A3006 RMK A01 T00420022  RH  087%=      5-min Rain = 0
KWE1 171331Z 32006KT 04/02 A3006 RMK A01 T00430023  RH  087%=      5-min Rain = 0
KWE1 171332Z 31006KT 04/02 A3006 RMK A01 T00430023  RH  087%=      5-min Rain = 0
KWE1 171333Z 31006KT 04/02 A3006 RMK A01 T00430022  RH  086%=      5-min Rain = 0
KWE1 171334Z 32006KT 04/02 A3006 RMK A01 T00430022  RH  086%=      5-min Rain = 0
KWE1 171335Z 32005KT 04/02 A3006 RMK A01 T00440023  RH  086%=      5-min Rain = 0
KWE1 171336Z 32006KT 05/02 A3006 RMK A01 T00450023  RH  086%=      5-min Rain = 0
KWE1 171337Z 32005KT 05/02 A3006 RMK A01 T00450024  RH  086%=      5-min Rain = 0
KWE1 171338Z 33006KT 05/02 A3006 RMK A01 T00460024  RH  086%=      5-min Rain = 0
KWE1 171339Z 33005KT 05/03 A3006 RMK A01 T00470025  RH  085%=      5-min Rain = 0
KWE1 171340Z 33007KT 05/03 A3006 RMK A01 T00480025  RH  085%=      5-min Rain = 0
KWE1 171341Z 33007KT 05/03 A3006 RMK A01 T00500027  RH  085%=      5-min Rain = 0
KWE1 171342Z 33008KT 05/03 A3006 RMK A01 T00520028  RH  085%=      5-min Rain = 0
KWE1 171343Z 33008KT 05/03 A3006 RMK A01 T00540029  RH  084%=      5-min Rain = 0
KWE1 171344Z 34009KT 06/03 A3007 RMK A01 T00550029  RH  083%=      5-min Rain = 0
KWE1 171345Z 34008KT 06/03 A3007 RMK A01 T00560028  RH  082%=      5-min Rain = 0
KWE1 171346Z 34010KT 06/03 A3007 RMK A01 T00570027  RH  081%=      5-min Rain = 0
KWE1 171347Z 34009KT 06/03 A3007 RMK A01 T00570026  RH  080%=      5-min Rain = 0
KWE1 171348Z 34012KT 06/03 A3007 RMK A01 T00580025  RH  080%=      5-min Rain = 0
KWE1 171349Z 34011KT 06/03 A3007 RMK A01 T00580025  RH  079%=      5-min Rain = 0
KWE1 171350Z 34011KT 06/02 A3007 RMK A01 T00580024  RH  079%=      5-min Rain = 0
KWE1 171351Z 34009KT 06/02 A3007 RMK A01 T00580024  RH  078%=      5-min Rain = 0
KWE1 171352Z 34012KT 06/02 A3007 RMK A01 T00580023  RH  078%=      5-min Rain = 0
KWE1 171353Z 34011KT 06/02 A3007 RMK A01 T00590023  RH  078%=      5-min Rain = 0
KWE1 171354Z 34012KT 06/02 A3007 RMK A01 T00590023  RH  078%=      5-min Rain = 0
KWE1 171355Z 34013KT 06/02 A3007 RMK A01 T00590022  RH  077%=      5-min Rain = 0
KWE1 171356Z 34014KT 06/02 A3007 RMK A01 T00590021  RH  077%=      5-min Rain = 0
KWE1 171357Z 34012KT 06/02 A3007 RMK A01 T00590021  RH  076%=      5-min Rain = 0
KWE1 171358Z 34012KT 06/02 A3008 RMK A01 T00600021  RH  076%=      5-min Rain = 0
KWE1 171359Z 34012KT 06/02 A3008 RMK A01 T00600021  RH  076%=      5-min Rain = 0
KWE1 171400Z 34012KT 06/02 A3008 RMK A01 T00600021  RH  076%=      5-min Rain = 0
KWE1 171401Z 34013KT 06/02 A3008 RMK A01 T00610021  RH  076%=      5-min Rain = 0
KWE1 171402Z 35012KT 06/02 A3008 RMK A01 T00610021  RH  075%=      5-min Rain = 0
KWE1 171403Z 35011KT 06/02 A3008 RMK A01 T00610021  RH  075%=      5-min Rain = 0
KWE1 171404Z 34011KT 06/02 A3008 RMK A01 T00610021  RH  075%=      5-min Rain = 0
KWE1 171405Z 34013KT 06/02 A3008 RMK A01 T00620021  RH  075%=      5-min Rain = 0
KWE1 171406Z 35011KT 06/02 A3008 RMK A01 T00620021  RH  075%=      5-min Rain = 0
KWE1 171407Z 35010KT 06/02 A3008 RMK A01 T00620021  RH  075%=      5-min Rain = 0
KWE1 171408Z 35010KT 06/02 A3008 RMK A01 T00620021  RH  075%=      5-min Rain = 0
KWE1 171409Z 35010KT 06/02 A3008 RMK A01 T00630021  RH  075%=      5-min Rain = 0
KWE1 171410Z 35010KT 06/02 A3008 RMK A01 T00640021  RH  074%=      5-min Rain = 0
KWE1 171411Z 35009KT 07/02 A3008 RMK A01 T00650021  RH  074%=      5-min Rain = 0
KWE1 171412Z 34009KT 07/02 A3008 RMK A01 T00650022  RH  074%=      5-min Rain = 0
KWE1 171413Z 35009KT 07/02 A3008 RMK A01 T00650022  RH  074%=      5-min Rain = 0
KWE1 171414Z 35012KT 07/02 A3008 RMK A01 T00660021  RH  073%=      5-min Rain = 0
KWE1 171415Z 35010KT 07/02 A3008 RMK A01 T00660020  RH  073%=      5-min Rain = 0
KWE1 171416Z 35009KT 07/02 A3008 RMK A01 T00670020  RH  072%=      5-min Rain = 0
KWE1 171417Z 35010KT 07/02 A3008 RMK A01 T00670021  RH  072%=      5-min Rain = 0
KWE1 171418Z 36010KT 07/02 A3008 RMK A01 T00680021  RH  072%=      5-min Rain = 0
KWE1 171419Z 35011KT 07/02 A3008 RMK A01 T00680020  RH  072%=      5-min Rain = 0
KWE1 171420Z 35011KT 07/02 A3008 RMK A01 T00690020  RH  071%=      5-min Rain = 0
KWE1 171421Z 35011KT 07/02 A3008 RMK A01 T00690020  RH  071%=      5-min Rain = 0
KWE1 171422Z 35010KT 07/02 A3008 RMK A01 T00700019  RH  070%=      5-min Rain = 0
KWE1 171423Z 35010KT 07/02 A3008 RMK A01 T00700019  RH  070%=      5-min Rain = 0
KWE1 171424Z 35008KT 07/02 A3008 RMK A01 T00710020  RH  070%=      5-min Rain = 0
KWE1 171425Z 35010KT 07/02 A3009 RMK A01 T00710021  RH  070%=      5-min Rain = 0
KWE1 171426Z 35012KT 07/02 A3009 RMK A01 T00720020  RH  070%=      5-min Rain = 0
KWE1 171427Z 35012KT 07/02 A3009 RMK A01 T00720019  RH  069%=      5-min Rain = 0
KWE1 171428Z 36011KT 07/02 A3009 RMK A01 T00720018  RH  069%=      5-min Rain = 0
KWE1 171429Z 35009KT 07/02 A3009 RMK A01 T00720019  RH  069%=      5-min Rain = 0
KWE1 171430Z 35010KT 07/02 A3009 RMK A01 T00720019  RH  069%=      5-min Rain = 0
KWE1 171431Z 36010KT 07/02 A3009 RMK A01 T00730020  RH  069%=      5-min Rain = 0
KWE1 171432Z 00011KT 07/02 A3009 RMK A01 T00730019  RH  068%=      5-min Rain = 0
KWE1 171433Z 35011KT 07/02 A3009 RMK A01 T00730018  RH  068%=      5-min Rain = 0
KWE1 171434Z 35010KT 07/02 A3009 RMK A01 T00730019  RH  068%=      5-min Rain = 0
KWE1 171435Z 35011KT 07/02 A3009 RMK A01 T00740019  RH  068%=      5-min Rain = 0
KWE1 171436Z 35012KT 07/02 A3009 RMK A01 T00730019  RH  068%=      5-min Rain = 0
KWE1 171437Z 35012KT 07/02 A3009 RMK A01 T00740018  RH  068%=      5-min Rain = 0
KWE1 171438Z 36010KT 07/02 A3009 RMK A01 T00740019  RH  068%=      5-min Rain = 0
KWE1 171439Z 36012G17KT 08/02 A3009 RMK A01 T00750019  RH  068%=      5-min Rain = 0
KWE1 171440Z 00010G15KT 08/02 A3009 RMK A01 T00750018  RH  067%=      5-min Rain = 0
KWE1 171441Z 36010KT 08/02 A3009 RMK A01 T00750020  RH  068%=      5-min Rain = 0
KWE1 171442Z 00011KT 08/02 A3009 RMK A01 T00760021  RH  068%=      5-min Rain = 0
KWE1 171443Z 36009KT 08/02 A301 RMK A01 T00760020  RH  068%=      5-min Rain = 0
KWE1 171444Z 36010G15KT 08/02 A301 RMK A01 T00770021  RH  068%=      5-min Rain = 0
KWE1 171445Z 36014KT 08/02 A301 RMK A01 T00780021  RH  067%=      5-min Rain = 0
KWE1 171446Z 00011KT 08/02 A301 RMK A01 T00770019  RH  067%=      5-min Rain = 0
KWE1 171447Z 36011KT 08/02 A301 RMK A01 T00770020  RH  067%=      5-min Rain = 0
KWE1 171448Z 35012KT 08/02 A301 RMK A01 T00770020  RH  067%=      5-min Rain = 0
KWE1 171449Z 36013KT 08/02 A301 RMK A01 T00780021  RH  067%=      5-min Rain = 0
KWE1 171450Z 00013KT 08/02 A301 RMK A01 T00780020  RH  066%=      5-min Rain = 0
KWE1 171451Z 01012KT 08/02 A301 RMK A01 T00790020  RH  066%=      5-min Rain = 0
KWE1 171452Z 36013G19KT 08/02 A301 RMK A01 T00790020  RH  066%=      5-min Rain = 0
KWE1 171453Z 36016KT 08/02 A301 RMK A01 T00800021  RH  066%=      5-min Rain = 0
KWE1 171454Z 36013KT 08/02 A301 RMK A01 T00810020  RH  066%=      5-min Rain = 0
KWE1 171455Z 00016KT 08/02 A301 RMK A01 T00810020  RH  065%=      5-min Rain = 0
KWE1 171456Z 36012KT 08/02 A301 RMK A01 T00820020  RH  065%=      5-min Rain = 0
KWE1 171457Z 36016KT 08/02 A301 RMK A01 T00830020  RH  065%=      5-min Rain = 0
KWE1 171458Z 36015KT 08/02 A301 RMK A01 T00830019  RH  064%=      5-min Rain = 0
KWE1 171459Z 36016KT 08/02 A301 RMK A01 T00830019  RH  064%=      5-min Rain = 0
KWE1 171500Z 36016KT 08/02 A301 RMK A01 T00840020  RH  064%=      5-min Rain = 0
KWE1 171501Z 00016KT 08/02 A301 RMK A01 T00840019  RH  064%=      5-min Rain = 0
KWE1 171502Z 00015KT 08/02 A301 RMK A01 T00840019  RH  064%=      5-min Rain = 0
KWE1 171503Z 00013KT 09/02 A301 RMK A01 T00850020  RH  064%=      5-min Rain = 0
KWE1 171504Z 36012KT 09/02 A301 RMK A01 T00860020  RH  063%=      5-min Rain = 0
KWE1 171505Z 00013KT 09/02 A301 RMK A01 T00870021  RH  063%=      5-min Rain = 0
KWE1 171506Z 00014KT 09/02 A301 RMK A01 T00880021  RH  063%=      5-min Rain = 0
KWE1 171507Z 00015KT 09/02 A301 RMK A01 T00890021  RH  062%=      5-min Rain = 0
KWE1 171508Z 00013KT 09/02 A301 RMK A01 T00890020  RH  062%=      5-min Rain = 0
KWE1 171509Z 00017KT 09/02 A301 RMK A01 T00890021  RH  062%=      5-min Rain = 0
KWE1 171510Z 01013KT 09/02 A301 RMK A01 T00890020  RH  062%=      5-min Rain = 0
KWE1 171511Z 00013KT 09/02 A301 RMK A01 T00900021  RH  062%=      5-min Rain = 0
KWE1 171512Z 01014KT 09/02 A301 RMK A01 T00920022  RH  062%=      5-min Rain = 0
KWE1 171513Z 00014G20KT 09/02 A301 RMK A01 T00920022  RH  061%=      5-min Rain = 0
KWE1 171514Z 00014KT 09/02 A301 RMK A01 T00940021  RH  061%=      5-min Rain = 0
KWE1 171515Z 36014KT 09/02 A301 RMK A01 T00940022  RH  061%=      5-min Rain = 0
KWE1 171516Z 00016KT 09/02 A301 RMK A01 T00940021  RH  060%=      5-min Rain = 0
KWE1 171517Z 00016KT 09/02 A301 RMK A01 T00940020  RH  060%=      5-min Rain = 0
KWE1 171518Z 00014KT 09/02 A301 RMK A01 T00940020  RH  060%=      5-min Rain = 0
KWE1 171519Z 01014KT 10/02 A301 RMK A01 T00950021  RH  060%=      5-min Rain = 0
KWE1 171520Z 00016KT 10/02 A301 RMK A01 T00960021  RH  060%=      5-min Rain = 0
KWE1 171521Z 01015KT 10/02 A3011 RMK A01 T00970021  RH  059%=      5-min Rain = 0
KWE1 171522Z 01016KT 10/02 A3011 RMK A01 T00970021  RH  059%=      5-min Rain = 0
KWE1 171523Z 01017KT 10/02 A3011 RMK A01 T00980020  RH  059%=      5-min Rain = 0
KWE1 171524Z 00016G21KT 10/02 A3011 RMK A01 T00970020  RH  059%=      5-min Rain = 0
KWE1 171525Z 01018KT 10/02 A3011 RMK A01 T00980020  RH  058%=      5-min Rain = 0
KWE1 171526Z 01019KT 10/02 A3011 RMK A01 T00990021  RH  058%=      5-min Rain = 0
KWE1 171527Z 01021KT 10/02 A3011 RMK A01 T01000020  RH  058%=      5-min Rain = 0
KWE1 171528Z 01018KT 10/02 A3011 RMK A01 T01000021  RH  058%=      5-min Rain = 0
KWE1 171529Z 01018KT 10/02 A3011 RMK A01 T01010022  RH  058%=      5-min Rain = 0
KWE1 171530Z 01019G24KT 10/02 A3011 RMK A01 T01020021  RH  057%=      5-min Rain = 0
KWE1 171531Z 00020KT 10/02 A3011 RMK A01 T01020020  RH  057%=      5-min Rain = 0
KWE1 171532Z 00018KT 10/02 A3011 RMK A01 T01020020  RH  057%=      5-min Rain = 0
KWE1 171533Z 01015G20KT 10/02 A3011 RMK A01 T01030022  RH  057%=      5-min Rain = 0
KWE1 171534Z 36017KT 11/02 A3011 RMK A01 T01050023  RH  057%=      5-min Rain = 0
KWE1 171535Z 02019KT 11/02 A3011 RMK A01 T01060023  RH  056%=      5-min Rain = 0
KWE1 171536Z 01016KT 11/02 A3011 RMK A01 T01060023  RH  056%=      5-min Rain = 0
KWE1 171537Z 01020KT 11/02 A3011 RMK A01 T01070022  RH  056%=      5-min Rain = 0
KWE1 171538Z 01021KT 11/02 A3011 RMK A01 T01070021  RH  055%=      5-min Rain = 0
KWE1 171539Z 01020G25KT 11/02 A3011 RMK A01 T01070021  RH  055%=      5-min Rain = 0
KWE1 171540Z 01020KT 11/02 A3011 RMK A01 T01070021  RH  055%=      5-min Rain = 0
KWE1 171541Z 01020KT 11/02 A301 RMK A01 T01070021  RH  055%=      5-min Rain = 0
KWE1 171542Z 00022KT 11/02 A301 RMK A01 T01080022  RH  055%=      5-min Rain = 0
KWE1 171543Z 01019KT 11/02 A301 RMK A01 T01080021  RH  055%=      5-min Rain = 0
KWE1 171544Z 01018KT 11/02 A301 RMK A01 T01090022  RH  055%=      5-min Rain = 0
KWE1 171545Z 01020KT 11/02 A301 RMK A01 T01100022  RH  055%=      5-min Rain = 0
KWE1 171546Z 02020KT 11/02 A301 RMK A01 T01110022  RH  054%=      5-min Rain = 0
KWE1 171547Z 02017KT 11/02 A301 RMK A01 T01110022  RH  054%=      5-min Rain = 0
KWE1 171548Z 01015KT 11/02 A301 RMK A01 T01130024  RH  054%=      5-min Rain = 0
KWE1 171549Z 02018KT 12/03 A301 RMK A01 T01150025  RH  054%=      5-min Rain = 0
KWE1 171550Z 02019KT 12/02 A301 RMK A01 T01160024  RH  053%=      5-min Rain = 0
KWE1 171551Z 01017G22KT 12/02 A301 RMK A01 T01160023  RH  053%=      5-min Rain = 0
KWE1 171552Z 01016KT 12/02 A301 RMK A01 T01170024  RH  053%=      5-min Rain = 0
KWE1 171553Z 02020KT 12/02 A301 RMK A01 T01180024  RH  053%=      5-min Rain = 0
KWE1 171554Z 02022KT 12/02 A301 RMK A01 T01180022  RH  052%=      5-min Rain = 0
KWE1 171555Z 01018KT 12/02 A301 RMK A01 T01170023  RH  052%=      5-min Rain = 0
KWE1 171556Z 01020G25KT 12/02 A301 RMK A01 T01180023  RH  052%=      5-min Rain = 0
KWE1 171557Z 01018KT 12/02 A301 RMK A01 T01180023  RH  052%=      5-min Rain = 0
KWE1 171558Z 02019KT 12/02 A3011 RMK A01 T01200024  RH  052%=      5-min Rain = 0
KWE1 171559Z 02022KT 12/02 A3011 RMK A01 T01200023  RH  051%=      5-min Rain = 0
KWE1 171600Z 01018KT 12/02 A301 RMK A01 T01200022  RH  051%=      5-min Rain = 0
KWE1 171601Z 02019KT 12/02 A301 RMK A01 T01200023  RH  051%=      5-min Rain = 0
KWE1 171602Z 02021KT 12/02 A301 RMK A01 T01210022  RH  051%=      5-min Rain = 0
KWE1 171603Z 02021G26KT 12/02 A301 RMK A01 T01200022  RH  051%=      5-min Rain = 0
KWE1 171604Z 01021KT 12/02 A301 RMK A01 T01200023  RH  051%=      5-min Rain = 0
KWE1 171605Z 02022G27KT 12/02 A3011 RMK A01 T01210023  RH  051%=      5-min Rain = 0
KWE1 171606Z 02020G25KT 12/02 A3011 RMK A01 T01220022  RH  051%=      5-min Rain = 0
KWE1 171607Z 02021KT 12/02 A3011 RMK A01 T01220023  RH  051%=      5-min Rain = 0
KWE1 171608Z 02022G27KT 12/02 A3011 RMK A01 T01220022  RH  050%=      5-min Rain = 0
KWE1 171609Z 02022KT 12/02 A301 RMK A01 T01220022  RH  050%=      5-min Rain = 0
KWE1 171610Z 02021KT 12/02 A3011 RMK A01 T01230022  RH  050%=      5-min Rain = 0
KWE1 171611Z 02023G29KT 12/02 A3011 RMK A01 T01230023  RH  051%=      5-min Rain = 0
KWE1 171612Z 02021KT 12/02 A3011 RMK A01 T01230022  RH  050%=      5-min Rain = 0
KWE1 171613Z 02021G26KT 12/02 A301 RMK A01 T01230023  RH  050%=      5-min Rain = 0
KWE1 171614Z 02021G27KT 12/02 A301 RMK A01 T01240023  RH  050%=      5-min Rain = 0
KWE1 171615Z 02022KT 12/02 A301 RMK A01 T01240023  RH  050%=      5-min Rain = 0
KWE1 171616Z 01024KT 13/02 A301 RMK A01 T01260024  RH  050%=      5-min Rain = 0
KWE1 171617Z 01023KT 13/02 A3011 RMK A01 T01260023  RH  049%=      5-min Rain = 0
KWE1 171618Z 02023G28KT 13/02 A3011 RMK A01 T01260023  RH  049%=      5-min Rain = 0
KWE1 171619Z 02021G26KT 13/02 A3011 RMK A01 T01260023  RH  049%=      5-min Rain = 0
KWE1 171620Z 02023KT 13/02 A3011 RMK A01 T01260023  RH  049%=      5-min Rain = 0
KWE1 171621Z 02022KT 13/02 A3011 RMK A01 T01260023  RH  049%=      5-min Rain = 0
KWE1 171622Z 02019G25KT 13/02 A3011 RMK A01 T01270024  RH  050%=      5-min Rain = 0
KWE1 171623Z 02021G26KT 13/02 A3011 RMK A01 T01290024  RH  049%=      5-min Rain = 0
KWE1 171624Z 02021KT 13/03 A3011 RMK A01 T01300025  RH  049%=      5-min Rain = 0
KWE1 171625Z 01020KT 13/03 A3011 RMK A01 T01300025  RH  049%=      5-min Rain = 0
KWE1 171626Z 01020KT 13/03 A3011 RMK A01 T01300025  RH  049%=      5-min Rain = 0
KWE1 171627Z 02016KT 13/03 A3011 RMK A01 T01310026  RH  049%=      5-min Rain = 0
KWE1 171628Z 02020KT 13/03 A3011 RMK A01 T01330028  RH  049%=      5-min Rain = 0
KWE1 171629Z 01019G25KT 13/03 A3011 RMK A01 T01340026  RH  048%=      5-min Rain = 0
KWE1 171630Z 01023KT 13/03 A3011 RMK A01 T01340025  RH  048%=      5-min Rain = 0
KWE1 171631Z 01017KT 13/03 A3011 RMK A01 T01320025  RH  048%=      5-min Rain = 0
KWE1 171632Z 02018G23KT 13/03 A3011 RMK A01 T01330026  RH  048%=      5-min Rain = 0
KWE1 171633Z 02017G22KT 13/03 A3011 RMK A01 T01340026  RH  048%=      5-min Rain = 0
KWE1 171634Z 02022KT 14/03 A3011 RMK A01 T01350025  RH  047%=      5-min Rain = 0
KWE1 171635Z 02021G27KT 13/02 A3011 RMK A01 T01330024  RH  047%=      5-min Rain = 0
KWE1 171636Z 02018KT 13/03 A3011 RMK A01 T01330025  RH  048%=      5-min Rain = 0
KWE1 171637Z 02020G26KT 13/03 A3011 RMK A01 T01340026  RH  048%=      5-min Rain = 0
KWE1 171638Z 02020G25KT 14/03 A3011 RMK A01 T01350025  RH  047%=      5-min Rain = 0
KWE1 171639Z 01017KT 13/03 A3011 RMK A01 T01340025  RH  048%=      5-min Rain = 0
KWE1 171640Z 02020KT 14/03 A3011 RMK A01 T01350026  RH  048%=      5-min Rain = 0
KWE1 171641Z 02015KT 14/03 A3011 RMK A01 T01350026  RH  048%=      5-min Rain = 0
KWE1 171642Z 01016KT 14/03 A3011 RMK A01 T01370028  RH  048%=      5-min Rain = 0
KWE1 171643Z 02016KT 14/03 A3011 RMK A01 T01390028  RH  047%=      5-min Rain = 0
KWE1 171644Z 01016G21KT 14/03 A3011 RMK A01 T01400028  RH  047%=      5-min Rain = 0
KWE1 171645Z 01019KT 14/03 A3011 RMK A01 T01400027  RH  046%=      5-min Rain = 0
KWE1 171646Z 02019KT 14/03 A3011 RMK A01 T01400027  RH  046%=      5-min Rain = 0
KWE1 171647Z 02019KT 14/03 A3011 RMK A01 T01390027  RH  047%=      5-min Rain = 0
KWE1 171648Z 03020KT 14/03 A3011 RMK A01 T01390026  RH  046%=      5-min Rain = 0
KWE1 171649Z 02018G23KT 14/02 A3011 RMK A01 T01370024  RH  046%=      5-min Rain = 0
KWE1 171650Z 02018KT 14/03 A3011 RMK A01 T01370026  RH  047%=      5-min Rain = 0
KWE1 171651Z 02016KT 14/03 A3011 RMK A01 T01380026  RH  047%=      5-min Rain = 0
KWE1 171652Z 01020G25KT 14/03 A3011 RMK A01 T01390028  RH  047%=      5-min Rain = 0
KWE1 171653Z 02018KT 14/03 A3011 RMK A01 T01400027  RH  047%=      5-min Rain = 0
KWE1 171654Z 02021G26KT 14/03 A3011 RMK A01 T01400027  RH  047%=      5-min Rain = 0
KWE1 171655Z 02019G24KT 14/03 A3011 RMK A01 T01390026  RH  047%=      5-min Rain = 0
KWE1 171656Z 02021KT 14/03 A3011 RMK A01 T01390027  RH  047%=      5-min Rain = 0
KWE1 171657Z 01019KT 14/03 A3011 RMK A01 T01390027  RH  047%=      5-min Rain = 0
KWE1 171658Z 02017G23KT 14/03 A3011 RMK A01 T01390028  RH  047%=      5-min Rain = 0
KWE1 171659Z 02018KT 14/03 A3011 RMK A01 T01400028  RH  047%=      5-min Rain = 0
KWE1 171700Z 01014G20KT 14/03 A301 RMK A01 T01400028  RH  047%=      5-min Rain = 0
KWE1 171701Z 01018KT 14/03 A301 RMK A01 T01410028  RH  047%=      5-min Rain = 0
KWE1 171702Z 01017KT 14/03 A301 RMK A01 T01410028  RH  046%=      5-min Rain = 0
KWE1 171703Z 00018KT 14/03 A301 RMK A01 T01400028  RH  047%=      5-min Rain = 0
KWE1 171704Z 00018G23KT 14/03 A301 RMK A01 T01390027  RH  047%=      5-min Rain = 0
KWE1 171705Z 01017KT 14/03 A301 RMK A01 T01400028  RH  047%=      5-min Rain = 0
KWE1 171706Z 01018KT 14/03 A301 RMK A01 T01410029  RH  047%=      5-min Rain = 0
KWE1 171707Z 02019KT 14/03 A301 RMK A01 T01410028  RH  046%=      5-min Rain = 0
KWE1 171708Z 01018KT 14/03 A301 RMK A01 T01410028  RH  046%=      5-min Rain = 0
KWE1 171709Z 01017KT 14/03 A301 RMK A01 T01420029  RH  047%=      5-min Rain = 0
KWE1 171710Z 01017G23KT 14/03 A301 RMK A01 T01440030  RH  046%=      5-min Rain = 0
KWE1 171711Z 01017KT 15/03 A301 RMK A01 T01450029  RH  046%=      5-min Rain = 0
KWE1 171712Z 02017G22KT 15/03 A301 RMK A01 T01450029  RH  046%=      5-min Rain = 0
KWE1 171713Z 01019KT 14/03 A301 RMK A01 T01440029  RH  046%=      5-min Rain = 0
KWE1 171714Z 01020KT 14/03 A301 RMK A01 T01440028  RH  046%=      5-min Rain = 0
KWE1 171715Z 01018KT 14/03 A301 RMK A01 T01420026  RH  046%=      5-min Rain = 0
KWE1 171716Z 36016G22KT 14/03 A301 RMK A01 T01410028  RH  046%=      5-min Rain = 0
KWE1 171717Z 01017KT 14/03 A301 RMK A01 T01430029  RH  046%=      5-min Rain = 0
KWE1 171718Z 02013G19KT 15/03 A301 RMK A01 T01450030  RH  046%=      5-min Rain = 0
KWE1 171719Z 02017KT 15/03 A301 RMK A01 T01470031  RH  045%=      5-min Rain = 0
KWE1 171720Z 02015KT 15/03 A301 RMK A01 T01480030  RH  045%=      5-min Rain = 0
KWE1 171721Z 01015KT 15/03 A301 RMK A01 T01480030  RH  045%=      5-min Rain = 0
KWE1 171722Z 01016KT 15/03 A301 RMK A01 T01480030  RH  045%=      5-min Rain = 0
KWE1 171723Z 01016KT 15/03 A301 RMK A01 T01470029  RH  045%=      5-min Rain = 0
KWE1 171724Z 01016G21KT 15/03 A301 RMK A01 T01470030  RH  045%=      5-min Rain = 0
KWE1 171725Z 01016KT 15/03 A301 RMK A01 T01480029  RH  045%=      5-min Rain = 0
KWE1 171726Z 01016KT 15/03 A301 RMK A01 T01480029  RH  045%=      5-min Rain = 0
KWE1 171727Z 01016KT 15/03 A301 RMK A01 T01470029  RH  045%=      5-min Rain = 0
KWE1 171728Z 01015KT 15/03 A301 RMK A01 T01490031  RH  045%=      5-min Rain = 0
KWE1 171729Z 00016G21KT 15/03 A301 RMK A01 T01510031  RH  045%=      5-min Rain = 0
KWE1 171730Z 01018KT 15/03 A301 RMK A01 T01510029  RH  044%=      5-min Rain = 0
KWE1 171731Z 01016KT 15/03 A301 RMK A01 T01490028  RH  044%=      5-min Rain = 0
KWE1 171732Z 01014KT 15/03 A301 RMK A01 T01470029  RH  045%=      5-min Rain = 0
KWE1 171733Z 02015KT 15/03 A301 RMK A01 T01480030  RH  045%=      5-min Rain = 0
KWE1 171734Z 01015KT 15/03 A301 RMK A01 T01490030  RH  045%=      5-min Rain = 0
KWE1 171735Z 01016KT 15/03 A301 RMK A01 T01500030  RH  044%=      5-min Rain = 0
KWE1 171736Z 01012G17KT 15/03 A3009 RMK A01 T01500030  RH  045%=      5-min Rain = 0
KWE1 171737Z 03014KT 15/03 A3009 RMK A01 T01510031  RH  044%=      5-min Rain = 0
KWE1 171738Z 03017KT 15/03 A3009 RMK A01 T01520029  RH  043%=      5-min Rain = 0
KWE1 171739Z 02017G22KT 15/03 A3009 RMK A01 T01510027  RH  043%=      5-min Rain = 0
KWE1 171740Z 01016G21KT 15/03 A301 RMK A01 T01510029  RH  044%=      5-min Rain = 0
KWE1 171741Z 01014KT 15/03 A3009 RMK A01 T01510030  RH  044%=      5-min Rain = 0
KWE1 171742Z 01014KT 15/03 A3009 RMK A01 T01510030  RH  044%=      5-min Rain = 0
KWE1 171743Z 01015KT 15/03 A3009 RMK A01 T01510030  RH  044%=      5-min Rain = 0
KWE1 171744Z 01015KT 15/03 A3009 RMK A01 T01520031  RH  044%=      5-min Rain = 0
KWE1 171745Z 01015KT 15/03 A3009 RMK A01 T01530031  RH  044%=      5-min Rain = 0
KWE1 171746Z 03014KT 15/03 A3009 RMK A01 T01530031  RH  044%=      5-min Rain = 0
KWE1 171747Z 01015KT 15/03 A3009 RMK A01 T01540030  RH  044%=      5-min Rain = 0
KWE1 171748Z 01014KT 15/03 A3009 RMK A01 T01530030  RH  043%=      5-min Rain = 0
KWE1 171749Z 01015KT 15/03 A3009 RMK A01 T01540031  RH  044%=      5-min Rain = 0
KWE1 171750Z 01013KT 16/03 A3009 RMK A01 T01550032  RH  044%=      5-min Rain = 0
KWE1 171751Z 02015KT 16/03 A3009 RMK A01 T01580032  RH  043%=      5-min Rain = 0
KWE1 171752Z 01017KT 16/03 A3009 RMK A01 T01580031  RH  043%=      5-min Rain = 0
KWE1 171753Z 01014KT 16/03 A3009 RMK A01 T01570031  RH  043%=      5-min Rain = 0
KWE1 171754Z 01012G20KT 16/03 A3009 RMK A01 T01570031  RH  043%=      5-min Rain = 0
KWE1 171755Z 02017KT 16/03 A3009 RMK A01 T01570030  RH  042%=      5-min Rain = 0
KWE1 171756Z 02018KT 16/03 A3009 RMK A01 T01580029  RH  042%=      5-min Rain = 0
KWE1 171757Z 03015KT 16/03 A3009 RMK A01 T01580029  RH  042%=      5-min Rain = 0
KWE1 171758Z 01015KT 16/03 A3009 RMK A01 T01580029  RH  042%=      5-min Rain = 0
KWE1 171759Z 02012G17KT 16/03 A3009 RMK A01 T01580030  RH  042%=      5-min Rain = 0
KWE1 171800Z 02016KT 16/03 A3009 RMK A01 T01590031  RH  042%=      5-min Rain = 0
KWE1 171801Z 02013KT 16/03 A3009 RMK A01 T01590030  RH  042%=      5-min Rain = 0
KWE1 171802Z 01013KT 16/03 A3009 RMK A01 T01590030  RH  042%=      5-min Rain = 0
KWE1 171803Z 36014KT 16/03 A3009 RMK A01 T01620032  RH  042%=      5-min Rain = 0
KWE1 171804Z 01014KT 16/03 A3009 RMK A01 T01620030  RH  041%=      5-min Rain = 0
KWE1 171805Z 01014G19KT 16/03 A3009 RMK A01 T01610031  RH  042%=      5-min Rain = 0
KWE1 171806Z 01015KT 16/03 A3009 RMK A01 T01610031  RH  042%=      5-min Rain = 0
KWE1 171807Z 01016KT 16/03 A3009 RMK A01 T01610030  RH  041%=      5-min Rain = 0
KWE1 171808Z 01016KT 16/03 A3009 RMK A01 T01600030  RH  042%=      5-min Rain = 0
KWE1 171809Z 01013KT 16/03 A3009 RMK A01 T01610031  RH  042%=      5-min Rain = 0
KWE1 171810Z 03014KT 16/03 A3009 RMK A01 T01640031  RH  041%=      5-min Rain = 0
KWE1 171811Z 01014KT 16/03 A3009 RMK A01 T01630029  RH  041%=      5-min Rain = 0
KWE1 171812Z 01014KT 16/03 A3009 RMK A01 T01630030  RH  041%=      5-min Rain = 0
KWE1 171813Z 01015KT 16/03 A3009 RMK A01 T01630031  RH  041%=      5-min Rain = 0
KWE1 171814Z 00014KT 16/03 A3008 RMK A01 T01630031  RH  041%=      5-min Rain = 0
KWE1 171815Z 36013KT 16/03 A3008 RMK A01 T01630030  RH  041%=      5-min Rain = 0
KWE1 171816Z 01013KT 16/03 A3008 RMK A01 T01620030  RH  041%=      5-min Rain = 0
KWE1 171817Z 02015KT 16/03 A3009 RMK A01 T01630029  RH  041%=      5-min Rain = 0
KWE1 171818Z 02014KT 16/03 A3009 RMK A01 T01640029  RH  040%=      5-min Rain = 0
KWE1 171819Z 03014KT 17/03 A3009 RMK A01 T01650029  RH  040%=      5-min Rain = 0
KWE1 171820Z 01012KT 17/03 A3009 RMK A01 T01650029  RH  040%=      5-min Rain = 0
KWE1 171821Z 01012KT 17/03 A3009 RMK A01 T01650030  RH  040%=      5-min Rain = 0
KWE1 171822Z 36011KT 17/03 A3009 RMK A01 T01650030  RH  040%=      5-min Rain = 0
KWE1 171823Z 36011KT 17/03 A3009 RMK A01 T01660032  RH  041%=      5-min Rain = 0
KWE1 171824Z 35011G16KT 17/03 A3008 RMK A01 T01670032  RH  040%=      5-min Rain = 0
KWE1 171825Z 36016KT 17/03 A3009 RMK A01 T01680033  RH  041%=      5-min Rain = 0
KWE1 171826Z 36014KT 17/03 A3008 RMK A01 T01680031  RH  040%=      5-min Rain = 0
KWE1 171827Z 02014KT 17/03 A3009 RMK A01 T01670031  RH  040%=      5-min Rain = 0
KWE1 171828Z 02014KT 17/03 A3009 RMK A01 T01670031  RH  040%=      5-min Rain = 0
KWE1 171829Z 01014KT 17/03 A3008 RMK A01 T01660030  RH  040%=      5-min Rain = 0
KWE1 171830Z 00014KT 17/03 A3008 RMK A01 T01660030  RH  040%=      5-min Rain = 0
KWE1 171831Z 01013KT 17/03 A3008 RMK A01 T01660030  RH  040%=      5-min Rain = 0
KWE1 171832Z 02013KT 17/03 A3008 RMK A01 T01680030  RH  039%=      5-min Rain = 0
KWE1 171833Z 02013KT 17/03 A3008 RMK A01 T01700029  RH  039%=      5-min Rain = 0
KWE1 171834Z 02013KT 17/03 A3008 RMK A01 T01710030  RH  039%=      5-min Rain = 0
KWE1 171835Z 36012KT 17/03 A3008 RMK A01 T01720031  RH  039%=      5-min Rain = 0
KWE1 171836Z 36011KT 17/03 A3008 RMK A01 T01720029  RH  038%=      5-min Rain = 0
KWE1 171837Z 00013G18KT 17/03 A3008 RMK A01 T01730031  RH  039%=      5-min Rain = 0
KWE1 171838Z 36012KT 17/03 A3008 RMK A01 T01740031  RH  038%=      5-min Rain = 0
KWE1 171839Z 36015KT 18/03 A3008 RMK A01 T01750032  RH  038%=      5-min Rain = 0
KWE1 171840Z 01014KT 18/03 A3008 RMK A01 T01750030  RH  038%=      5-min Rain = 0
KWE1 171841Z 00016KT 18/03 A3008 RMK A01 T01750030  RH  038%=      5-min Rain = 0
KWE1 171842Z 01012KT 17/03 A3008 RMK A01 T01710026  RH  038%=      5-min Rain = 0
KWE1 171843Z 02013KT 17/03 A3008 RMK A01 T01700028  RH  039%=      5-min Rain = 0
KWE1 171844Z 02012KT 17/03 A3008 RMK A01 T01710027  RH  038%=      5-min Rain = 0
KWE1 171845Z 01012KT 17/03 A3008 RMK A01 T01700028  RH  039%=      5-min Rain = 0
KWE1 171846Z 03015KT 17/03 A3008 RMK A01 T01700030  RH  039%=      5-min Rain = 0
KWE1 171847Z 02013KT 17/03 A3008 RMK A01 T01710030  RH  039%=      5-min Rain = 0
KWE1 171848Z 01012KT 17/03 A3008 RMK A01 T01700030  RH  039%=      5-min Rain = 0
KWE1 171849Z 01014KT 17/03 A3008 RMK A01 T01710030  RH  039%=      5-min Rain = 0
KWE1 171850Z 00013KT 17/03 A3008 RMK A01 T01710030  RH  039%=      5-min Rain = 0
KWE1 171851Z 01015KT 17/03 A3008 RMK A01 T01710030  RH  039%=      5-min Rain = 0
KWE1 171852Z 01014KT 17/03 A3008 RMK A01 T01720028  RH  038%=      5-min Rain = 0
KWE1 171853Z 36014KT 17/03 A3008 RMK A01 T01710029  RH  039%=      5-min Rain = 0
KWE1 171854Z 01017KT 17/03 A3008 RMK A01 T01710030  RH  039%=      5-min Rain = 0
KWE1 171855Z 01016KT 17/03 A3008 RMK A01 T01710028  RH  038%=      5-min Rain = 0
KWE1 171856Z 01012KT 17/03 A3008 RMK A01 T01700029  RH  039%=      5-min Rain = 0
KWE1 171857Z 02009KT 17/03 A3008 RMK A01 T01700030  RH  039%=      5-min Rain = 0
KWE1 171858Z 01011KT 17/03 A3008 RMK A01 T01720031  RH  039%=      5-min Rain = 0
KWE1 171859Z 02012KT 17/03 A3008 RMK A01 T01720030  RH  039%=      5-min Rain = 0
KWE1 171900Z 02014KT 17/03 A3008 RMK A01 T01730031  RH  039%=      5-min Rain = 0
KWE1 171901Z 02017KT 18/03 A3008 RMK A01 T01750031  RH  038%=      5-min Rain = 0
KWE1 171902Z 03012KT 18/03 A3008 RMK A01 T01750031  RH  038%=      5-min Rain = 0
KWE1 171903Z 03012KT 17/03 A3008 RMK A01 T01740031  RH  038%=      5-min Rain = 0
KWE1 171904Z 02014KT 17/03 A3008 RMK A01 T01740030  RH  038%=      5-min Rain = 0
KWE1 171905Z 02016KT 17/03 A3008 RMK A01 T01730031  RH  038%=      5-min Rain = 0
KWE1 171906Z 02015KT 17/03 A3008 RMK A01 T01740030  RH  038%=      5-min Rain = 0
KWE1 171907Z 01016KT 17/03 A3008 RMK A01 T01740030  RH  038%=      5-min Rain = 0
KWE1 171908Z 01015KT 17/03 A3007 RMK A01 T01740030  RH  038%=      5-min Rain = 0
KWE1 171909Z 01017KT 18/03 A3007 RMK A01 T01750031  RH  038%=      5-min Rain = 0
KWE1 171910Z 01018KT 18/03 A3007 RMK A01 T01760031  RH  038%=      5-min Rain = 0
KWE1 171911Z 02015KT 18/03 A3007 RMK A01 T01760031  RH  038%=      5-min Rain = 0
KWE1 171912Z 02011KT 18/03 A3007 RMK A01 T01770031  RH  038%=      5-min Rain = 0
KWE1 171913Z 01012KT 18/03 A3007 RMK A01 T01780030  RH  037%=      5-min Rain = 0
KWE1 171914Z 02017KT 18/03 A3007 RMK A01 T01770030  RH  037%=      5-min Rain = 0
KWE1 171915Z 01018KT 18/03 A3007 RMK A01 T01770030  RH  038%=      5-min Rain = 0
KWE1 171916Z 02016KT 18/03 A3007 RMK A01 T01760029  RH  038%=      5-min Rain = 0
KWE1 171917Z 01014KT 18/03 A3007 RMK A01 T01750028  RH  037%=      5-min Rain = 0
KWE1 171918Z 01017KT 17/03 A3007 RMK A01 T01740028  RH  037%=      5-min Rain = 0
KWE1 171919Z 02018KT 18/03 A3007 RMK A01 T01760028  RH  037%=      5-min Rain = 0
KWE1 171920Z 01017KT 18/03 A3007 RMK A01 T01760029  RH  037%=      5-min Rain = 0
KWE1 171921Z 02015KT 18/03 A3008 RMK A01 T01760029  RH  037%=      5-min Rain = 0
KWE1 171922Z 02016KT 18/03 A3008 RMK A01 T01760029  RH  037%=      5-min Rain = 0
KWE1 171923Z 03014KT 18/03 A3008 RMK A01 T01760028  RH  037%=      5-min Rain = 0
KWE1 171924Z 02013KT 18/03 A3008 RMK A01 T01760030  RH  038%=      5-min Rain = 0
KWE1 171925Z 02013G18KT 18/03 A3008 RMK A01 T01780031  RH  038%=      5-min Rain = 0
KWE1 171926Z 01015KT 18/03 A3008 RMK A01 T01800031  RH  037%=      5-min Rain = 0
KWE1 171927Z 01014KT 18/03 A3008 RMK A01 T01790030  RH  037%=      5-min Rain = 0
KWE1 171928Z 01015KT 18/03 A3008 RMK A01 T01790031  RH  037%=      5-min Rain = 0
KWE1 171929Z 01012KT 18/03 A3007 RMK A01 T01790031  RH  037%=      5-min Rain = 0
KWE1 171930Z 36016KT 18/03 A3007 RMK A01 T01800030  RH  037%=      5-min Rain = 0
KWE1 171931Z 01016KT 18/03 A3007 RMK A01 T01800030  RH  037%=      5-min Rain = 0
KWE1 171932Z 01017KT 18/03 A3007 RMK A01 T01810030  RH  036%=      5-min Rain = 0
KWE1 171933Z 02015KT 18/03 A3007 RMK A01 T01800029  RH  036%=      5-min Rain = 0
KWE1 171934Z 02014KT 18/03 A3007 RMK A01 T01790029  RH  037%=      5-min Rain = 0
KWE1 171935Z 01014KT 18/03 A3007 RMK A01 T01790030  RH  037%=      5-min Rain = 0
KWE1 171936Z 02014KT 18/03 A3007 RMK A01 T01790030  RH  037%=      5-min Rain = 0
KWE1 171937Z 03014KT 18/03 A3007 RMK A01 T01810031  RH  037%=      5-min Rain = 0
KWE1 171938Z 03014KT 18/03 A3007 RMK A01 T01820030  RH  036%=      5-min Rain = 0
KWE1 171939Z 02016KT 18/03 A3007 RMK A01 T01810030  RH  036%=      5-min Rain = 0
KWE1 171940Z 03015KT 18/03 A3007 RMK A01 T01790029  RH  037%=      5-min Rain = 0
KWE1 171941Z 02015KT 18/03 A3007 RMK A01 T01790029  RH  037%=      5-min Rain = 0
KWE1 171942Z 01013KT 18/03 A3007 RMK A01 T01790029  RH  037%=      5-min Rain = 0
KWE1 171943Z 01013KT 18/03 A3007 RMK A01 T01790029  RH  037%=      5-min Rain = 0
KWE1 171944Z 01013KT 18/03 A3007 RMK A01 T01800030  RH  037%=      5-min Rain = 0
KWE1 171945Z 01016KT 18/03 A3007 RMK A01 T01800029  RH  037%=      5-min Rain = 0
KWE1 171946Z 01015KT 18/03 A3007 RMK A01 T01790028  RH  037%=      5-min Rain = 0
KWE1 171947Z 02014KT 18/03 A3007 RMK A01 T01780029  RH  037%=      5-min Rain = 0
KWE1 171948Z 03014KT 18/03 A3007 RMK A01 T01790030  RH  037%=      5-min Rain = 0
KWE1 171949Z 03014KT 18/03 A3007 RMK A01 T01800029  RH  037%=      5-min Rain = 0
KWE1 171950Z 01017KT 18/03 A3007 RMK A01 T01780028  RH  037%=      5-min Rain = 0
KWE1 171951Z 01016KT 18/03 A3006 RMK A01 T01770028  RH  037%=      5-min Rain = 0
KWE1 171952Z 01015KT 18/03 A3006 RMK A01 T01760027  RH  037%=      5-min Rain = 0
KWE1 171953Z 00017KT 18/03 A3006 RMK A01 T01770029  RH  037%=      5-min Rain = 0
KWE1 171954Z 00013KT 18/03 A3006 RMK A01 T01780029  RH  037%=      5-min Rain = 0
KWE1 171955Z 02014G19KT 18/03 A3006 RMK A01 T01800031  RH  037%=      5-min Rain = 0
KWE1 171956Z 02014KT 18/03 A3006 RMK A01 T01820030  RH  036%=      5-min Rain = 0
KWE1 171957Z 03016KT 18/03 A3006 RMK A01 T01820029  RH  036%=      5-min Rain = 0
KWE1 171958Z 02017G22KT 18/03 A3006 RMK A01 T01800027  RH  036%=      5-min Rain = 0
KWE1 171959Z 01018KT 18/03 A3006 RMK A01 T01790029  RH  037%=      5-min Rain = 0
KWE1 172000Z 02018KT 18/03 A3006 RMK A01 T01790029  RH  037%=      5-min Rain = 0
KWE1 172001Z 02017KT 18/03 A3006 RMK A01 T01790029  RH  037%=      5-min Rain = 0
KWE1 172002Z 01015KT 18/03 A3006 RMK A01 T01780028  RH  037%=      5-min Rain = 0
KWE1 172003Z 02014KT 18/03 A3006 RMK A01 T01780028  RH  037%=      5-min Rain = 0
KWE1 172004Z 02012KT 18/03 A3006 RMK A01 T01780028  RH  037%=      5-min Rain = 0
KWE1 172005Z 03010KT 18/03 A3006 RMK A01 T01780029  RH  037%=      5-min Rain = 0
KWE1 172006Z 03010KT 18/03 A3006 RMK A01 T01790031  RH  037%=      5-min Rain = 0
KWE1 172007Z 02009KT 18/03 A3005 RMK A01 T01810031  RH  037%=      5-min Rain = 0
KWE1 172008Z 01014KT 18/03 A3006 RMK A01 T01830032  RH  036%=      5-min Rain = 0
KWE1 172009Z 03014KT 18/03 A3006 RMK A01 T01840031  RH  036%=      5-min Rain = 0
KWE1 172010Z 01016KT 18/03 A3006 RMK A01 T01830031  RH  036%=      5-min Rain = 0
KWE1 172011Z 01013G18KT 18/03 A3006 RMK A01 T01820030  RH  036%=      5-min Rain = 0
KWE1 172012Z 01011KT 18/03 A3006 RMK A01 T01810030  RH  037%=      5-min Rain = 0
KWE1 172013Z 01014KT 18/03 A3006 RMK A01 T01810030  RH  037%=      5-min Rain = 0
KWE1 172014Z 02013KT 18/03 A3006 RMK A01 T01800030  RH  037%=      5-min Rain = 0
KWE1 172015Z 02014KT 18/03 A3006 RMK A01 T01800030  RH  037%=      5-min Rain = 0
KWE1 172016Z 03017KT 18/03 A3006 RMK A01 T01810029  RH  036%=      5-min Rain = 0
KWE1 172017Z 03013KT 18/03 A3006 RMK A01 T01810028  RH  036%=      5-min Rain = 0
KWE1 172018Z 04015KT 18/03 A3006 RMK A01 T01810029  RH  036%=      5-min Rain = 0
KWE1 172019Z 03013KT 18/03 A3006 RMK A01 T01790028  RH  036%=      5-min Rain = 0
KWE1 172020Z 02015KT 18/03 A3005 RMK A01 T01790028  RH  037%=      5-min Rain = 0
KWE1 172021Z 02016G21KT 18/03 A3006 RMK A01 T01790030  RH  037%=      5-min Rain = 0
KWE1 172022Z 00014KT 18/03 A3006 RMK A01 T01810031  RH  037%=      5-min Rain = 0
KWE1 172023Z 01012KT 18/03 A3006 RMK A01 T01810030  RH  037%=      5-min Rain = 0
KWE1 172024Z 00012KT 18/03 A3006 RMK A01 T01810031  RH  037%=      5-min Rain = 0
KWE1 172025Z 01014KT 18/03 A3005 RMK A01 T01810031  RH  037%=      5-min Rain = 0
KWE1 172026Z 03014KT 18/03 A3006 RMK A01 T01830031  RH  036%=      5-min Rain = 0
KWE1 172027Z 03010KT 18/03 A3005 RMK A01 T01820029  RH  036%=      5-min Rain = 0
KWE1 172028Z 03016G21KT 18/03 A3005 RMK A01 T01800029  RH  036%=      5-min Rain = 0
KWE1 172029Z 01014KT 18/03 A3006 RMK A01 T01810031  RH  037%=      5-min Rain = 0
KWE1 172030Z 00015KT 18/03 A3005 RMK A01 T01820032  RH  037%=      5-min Rain = 0
KWE1 172031Z 01014G19KT 18/03 A3006 RMK A01 T01820030  RH  036%=      5-min Rain = 0
KWE1 172032Z 01012KT 18/03 A3005 RMK A01 T01810031  RH  037%=      5-min Rain = 0
KWE1 172033Z 02014KT 18/03 A3006 RMK A01 T01820032  RH  037%=      5-min Rain = 0
KWE1 172034Z 01014KT 18/03 A3005 RMK A01 T01820031  RH  036%=      5-min Rain = 0
KWE1 172035Z 01013KT 18/03 A3005 RMK A01 T01810031  RH  037%=      5-min Rain = 0
KWE1 172036Z 03014KT 18/03 A3005 RMK A01 T01810031  RH  037%=      5-min Rain = 0
KWE1 172037Z 02012KT 18/03 A3005 RMK A01 T01810030  RH  037%=      5-min Rain = 0
KWE1 172038Z 01010KT 18/03 A3005 RMK A01 T01800030  RH  037%=      5-min Rain = 0
KWE1 172039Z 02010KT 18/03 A3005 RMK A01 T01800030  RH  037%=      5-min Rain = 0
KWE1 172040Z 02011G16KT 18/03 A3005 RMK A01 T01800030  RH  037%=      5-min Rain = 0
KWE1 172041Z 03009G14KT 18/03 A3005 RMK A01 T01810031  RH  037%=      5-min Rain = 0
KWE1 172042Z 03012KT 18/03 A3005 RMK A01 T01820031  RH  037%=      5-min Rain = 0
KWE1 172043Z 03012KT 18/03 A3005 RMK A01 T01830031  RH  036%=      5-min Rain = 0
KWE1 172044Z 01013G19KT 18/03 A3005 RMK A01 T01830032  RH  036%=      5-min Rain = 0
KWE1 172045Z 01013KT 18/03 A3005 RMK A01 T01840031  RH  036%=      5-min Rain = 0
KWE1 172046Z 01013KT 18/03 A3005 RMK A01 T01830030  RH  036%=      5-min Rain = 0
KWE1 172047Z 02011KT 18/03 A3005 RMK A01 T01820029  RH  036%=      5-min Rain = 0
KWE1 172048Z 01009KT 18/03 A3005 RMK A01 T01800030  RH  037%=      5-min Rain = 0
KWE1 172049Z 02009KT 18/03 A3005 RMK A01 T01820032  RH  037%=      5-min Rain = 0
KWE1 172050Z 00010KT 19/03 A3005 RMK A01 T01850033  RH  036%=      5-min Rain = 0
KWE1 172051Z 02014KT 19/03 A3005 RMK A01 T01860031  RH  036%=      5-min Rain = 0
KWE1 172052Z 01014KT 19/03 A3005 RMK A01 T01850031  RH  036%=      5-min Rain = 0
KWE1 172053Z 01011KT 18/03 A3005 RMK A01 T01840030  RH  036%=      5-min Rain = 0
KWE1 172054Z 03014KT 18/03 A3005 RMK A01 T01830031  RH  036%=      5-min Rain = 0
KWE1 172055Z 03013KT 18/03 A3004 RMK A01 T01840030  RH  036%=      5-min Rain = 0
KWE1 172056Z 03013KT 18/03 A3005 RMK A01 T01830030  RH  036%=      5-min Rain = 0
KWE1 172057Z 03011KT 18/03 A3004 RMK A01 T01820029  RH  036%=      5-min Rain = 0
KWE1 172058Z 04011KT 18/03 A3004 RMK A01 T01800029  RH  036%=      5-min Rain = 0
KWE1 172059Z 04011KT 18/03 A3005 RMK A01 T01800030  RH  037%=      5-min Rain = 0
KWE1 172100Z 03012KT 18/03 A3005 RMK A01 T01800030  RH  037%=      5-min Rain = 0
KWE1 172101Z 02012KT 18/03 A3004 RMK A01 T01800030  RH  037%=      5-min Rain = 0
KWE1 172102Z 02011KT 18/03 A3004 RMK A01 T01810031  RH  037%=      5-min Rain = 0
KWE1 172103Z 02009KT 18/03 A3004 RMK A01 T01810031  RH  037%=      5-min Rain = 0
KWE1 172104Z 02011KT 18/03 A3004 RMK A01 T01810031  RH  037%=      5-min Rain = 0
KWE1 172105Z 03009KT 18/03 A3004 RMK A01 T01820031  RH  036%=      5-min Rain = 0
KWE1 172106Z 03009KT 18/03 A3005 RMK A01 T01820031  RH  037%=      5-min Rain = 0
KWE1 172107Z 02013KT 18/03 A3005 RMK A01 T01830032  RH  036%=      5-min Rain = 0
KWE1 172108Z 03011KT 18/03 A3004 RMK A01 T01830031  RH  036%=      5-min Rain = 0
KWE1 172109Z 03011KT 18/03 A3004 RMK A01 T01830031  RH  036%=      5-min Rain = 0
KWE1 172110Z 02012KT 18/03 A3004 RMK A01 T01830031  RH  036%=      5-min Rain = 0
KWE1 172111Z 02011KT 18/03 A3004 RMK A01 T01820031  RH  037%=      5-min Rain = 0
KWE1 172112Z 02011KT 18/03 A3004 RMK A01 T01830032  RH  037%=      5-min Rain = 0
KWE1 172113Z 02011KT 18/03 A3004 RMK A01 T01830031  RH  037%=      5-min Rain = 0
KWE1 172114Z 01008KT 18/03 A3004 RMK A01 T01830032  RH  037%=      5-min Rain = 0
KWE1 172115Z 01009KT 18/03 A3005 RMK A01 T01830032  RH  037%=      5-min Rain = 0
KWE1 172116Z 01007KT 18/03 A3005 RMK A01 T01830032  RH  036%=      5-min Rain = 0
KWE1 172117Z 00005KT 18/03 A3005 RMK A01 T01820031  RH  036%=      5-min Rain = 0
KWE1 172118Z 03008KT 18/03 A3005 RMK A01 T01820032  RH  037%=      5-min Rain = 0
KWE1 172119Z 01009KT 18/03 A3005 RMK A01 T01820032  RH  037%=      5-min Rain = 0
KWE1 172120Z 01007KT 18/03 A3005 RMK A01 T01830032  RH  037%=      5-min Rain = 0
KWE1 172121Z 36008KT 18/03 A3004 RMK A01 T01830032  RH  037%=      5-min Rain = 0
KWE1 172122Z 01012KT 18/03 A3005 RMK A01 T01840032  RH  036%=      5-min Rain = 0
KWE1 172123Z 01012KT 18/03 A3005 RMK A01 T01840032  RH  036%=      5-min Rain = 0
KWE1 172124Z 02008KT 18/03 A3005 RMK A01 T01840032  RH  036%=      5-min Rain = 0
KWE1 172125Z 02008KT 18/03 A3005 RMK A01 T01840033  RH  037%=      5-min Rain = 0
KWE1 172126Z 02008KT 19/03 A3005 RMK A01 T01850031  RH  036%=      5-min Rain = 0
KWE1 172127Z 01007KT 18/03 A3005 RMK A01 T01830030  RH  036%=      5-min Rain = 0
KWE1 172128Z 36006KT 18/03 A3004 RMK A01 T01820030  RH  036%=      5-min Rain = 0
KWE1 172129Z 01006KT 18/03 A3004 RMK A01 T01820030  RH  036%=      5-min Rain = 0
KWE1 172130Z 01006G11KT 18/03 A3004 RMK A01 T01820031  RH  037%=      5-min Rain = 0
KWE1 172131Z 01011KT 18/03 A3005 RMK A01 T01830032  RH  036%=      5-min Rain = 0
KWE1 172132Z 00011KT 18/03 A3005 RMK A01 T01840032  RH  036%=      5-min Rain = 0
KWE1 172133Z 01011KT 18/03 A3005 RMK A01 T01840032  RH  036%=      5-min Rain = 0
KWE1 172134Z 02011KT 18/03 A3004 RMK A01 T01830031  RH  036%=      5-min Rain = 0
KWE1 172135Z 36009KT 18/03 A3004 RMK A01 T01830032  RH  036%=      5-min Rain = 0
KWE1 172136Z 00008KT 18/03 A3004 RMK A01 T01840032  RH  036%=      5-min Rain = 0
KWE1 172137Z 00010KT 19/03 A3005 RMK A01 T01850033  RH  036%=      5-min Rain = 0
KWE1 172138Z 01009KT 18/03 A3005 RMK A01 T01840031  RH  036%=      5-min Rain = 0
KWE1 172139Z 00008KT 18/03 A3005 RMK A01 T01830030  RH  036%=      5-min Rain = 0
KWE1 172140Z 35009KT 18/03 A3005 RMK A01 T01830032  RH  036%=      5-min Rain = 0
KWE1 172141Z 35010KT 18/03 A3005 RMK A01 T01830031  RH  036%=      5-min Rain = 0
KWE1 172142Z 36010KT 18/03 A3005 RMK A01 T01840032  RH  036%=      5-min Rain = 0
KWE1 172143Z 36009KT 18/03 A3005 RMK A01 T01840030  RH  036%=      5-min Rain = 0
KWE1 172144Z 00009KT 18/03 A3005 RMK A01 T01830031  RH  036%=      5-min Rain = 0
KWE1 172145Z 02008KT 18/03 A3005 RMK A01 T01840031  RH  036%=      5-min Rain = 0
KWE1 172146Z 04009KT 18/03 A3005 RMK A01 T01830030  RH  036%=      5-min Rain = 0
KWE1 172147Z 03010KT 18/03 A3005 RMK A01 T01830030  RH  036%=      5-min Rain = 0
KWE1 172148Z 01013KT 18/03 A3005 RMK A01 T01820030  RH  036%=      5-min Rain = 0
KWE1 172149Z 00012KT 18/03 A3005 RMK A01 T01820031  RH  036%=      5-min Rain = 0
KWE1 172150Z 36011KT 18/03 A3005 RMK A01 T01820030  RH  036%=      5-min Rain = 0
KWE1 172151Z 36009KT 18/03 A3005 RMK A01 T01820030  RH  036%=      5-min Rain = 0
KWE1 172152Z 35009KT 18/03 A3005 RMK A01 T01810030  RH  036%=      5-min Rain = 0
KWE1 172153Z 00008KT 18/03 A3005 RMK A01 T01810029  RH  036%=      5-min Rain = 0
KWE1 172154Z 01009KT 18/03 A3005 RMK A01 T01810030  RH  037%=      5-min Rain = 0
KWE1 172155Z 01008KT 18/03 A3005 RMK A01 T01820031  RH  036%=      5-min Rain = 0
KWE1 172156Z 01009KT 18/03 A3004 RMK A01 T01820031  RH  036%=      5-min Rain = 0
KWE1 172157Z 01008KT 18/03 A3004 RMK A01 T01820031  RH  036%=      5-min Rain = 0
KWE1 172158Z 01008KT 18/03 A3004 RMK A01 T01820031  RH  036%=      5-min Rain = 0
KWE1 172159Z 01010KT 18/03 A3004 RMK A01 T01820030  RH  036%=      5-min Rain = 0
KWE1 172200Z 02010KT 18/03 A3004 RMK A01 T01820030  RH  036%=      5-min Rain = 0
KWE1 172201Z 02010KT 18/03 A3004 RMK A01 T01810030  RH  036%=      5-min Rain = 0
KWE1 172202Z 03008KT 18/03 A3004 RMK A01 T01810029  RH  036%=      5-min Rain = 0
KWE1 172203Z 01008KT 18/03 A3004 RMK A01 T01810030  RH  037%=      5-min Rain = 0
KWE1 172204Z 01009KT 18/03 A3004 RMK A01 T01810030  RH  037%=      5-min Rain = 0
KWE1 172205Z 01008KT 18/03 A3004 RMK A01 T01810030  RH  036%=      5-min Rain = 0
KWE1 172206Z 02011KT 18/03 A3004 RMK A01 T01810030  RH  036%=      5-min Rain = 0
KWE1 172207Z 02009KT 18/03 A3004 RMK A01 T01810029  RH  036%=      5-min Rain = 0
KWE1 172208Z 02011KT 18/03 A3004 RMK A01 T01810030  RH  036%=      5-min Rain = 0
KWE1 172209Z 01010KT 18/03 A3004 RMK A01 T01810029  RH  036%=      5-min Rain = 0
KWE1 172210Z 01009KT 18/03 A3004 RMK A01 T01810029  RH  036%=      5-min Rain = 0
KWE1 172211Z 36008KT 18/03 A3004 RMK A01 T01810030  RH  037%=      5-min Rain = 0
KWE1 172212Z 00007KT 18/03 A3004 RMK A01 T01810030  RH  037%=      5-min Rain = 0
KWE1 172213Z 02007KT 18/03 A3004 RMK A01 T01810030  RH  036%=      5-min Rain = 0
KWE1 172214Z 02008KT 18/03 A3004 RMK A01 T01820030  RH  036%=      5-min Rain = 0
KWE1 172215Z 01011KT 18/03 A3004 RMK A01 T01810030  RH  036%=      5-min Rain = 0
KWE1 172216Z 02011KT 18/03 A3004 RMK A01 T01810029  RH  036%=      5-min Rain = 0
KWE1 172217Z 01011KT 18/03 A3004 RMK A01 T01800029  RH  036%=      5-min Rain = 0
KWE1 172218Z 00011KT 18/03 A3004 RMK A01 T01790029  RH  037%=      5-min Rain = 0
KWE1 172219Z 01012KT 18/03 A3004 RMK A01 T01800029  RH  037%=      5-min Rain = 0
KWE1 172220Z 01011KT 18/03 A3004 RMK A01 T01790029  RH  037%=      5-min Rain = 0
KWE1 172221Z 01011KT 18/03 A3004 RMK A01 T01790028  RH  037%=      5-min Rain = 0
KWE1 172222Z 01010KT 18/03 A3004 RMK A01 T01780028  RH  037%=      5-min Rain = 0
KWE1 172223Z 01010KT 18/03 A3004 RMK A01 T01780029  RH  037%=      5-min Rain = 0
KWE1 172224Z 01007KT 18/03 A3004 RMK A01 T01780029  RH  037%=      5-min Rain = 0
KWE1 172225Z 01007KT 18/03 A3004 RMK A01 T01780029  RH  037%=      5-min Rain = 0
KWE1 172226Z 00009KT 18/03 A3004 RMK A01 T01780029  RH  037%=      5-min Rain = 0
KWE1 172227Z 36011KT 18/03 A3004 RMK A01 T01780028  RH  037%=      5-min Rain = 0
KWE1 172228Z 01012KT 18/03 A3004 RMK A01 T01780029  RH  037%=      5-min Rain = 0
KWE1 172229Z 01012KT 18/03 A3004 RMK A01 T01780028  RH  037%=      5-min Rain = 0
KWE1 172230Z 01010KT 18/03 A3004 RMK A01 T01770028  RH  037%=      5-min Rain = 0
KWE1 172231Z 01008KT 18/03 A3004 RMK A01 T01760028  RH  037%=      5-min Rain = 0
KWE1 172232Z 02009KT 18/03 A3004 RMK A01 T01760028  RH  037%=      5-min Rain = 0
KWE1 172233Z 02009KT 18/03 A3004 RMK A01 T01760028  RH  037%=      5-min Rain = 0
KWE1 172234Z 02009KT 18/03 A3004 RMK A01 T01760028  RH  037%=      5-min Rain = 0
KWE1 172235Z 02008KT 18/03 A3004 RMK A01 T01760028  RH  037%=      5-min Rain = 0
KWE1 172236Z 02008KT 18/03 A3005 RMK A01 T01760027  RH  037%=      5-min Rain = 0
KWE1 172237Z 02008KT 18/03 A3005 RMK A01 T01760028  RH  037%=      5-min Rain = 0
KWE1 172238Z 01008KT 18/03 A3005 RMK A01 T01760028  RH  037%=      5-min Rain = 0
KWE1 172239Z 01008KT 18/03 A3005 RMK A01 T01760028  RH  037%=      5-min Rain = 0
KWE1 172240Z 01007KT 18/03 A3005 RMK A01 T01750028  RH  037%=      5-min Rain = 0
KWE1 172241Z 01010KT 18/03 A3005 RMK A01 T01760029  RH  037%=      5-min Rain = 0
KWE1 172242Z 01009KT 18/03 A3005 RMK A01 T01750028  RH  037%=      5-min Rain = 0
KWE1 172243Z 00009KT 18/03 A3005 RMK A01 T01750028  RH  037%=      5-min Rain = 0
KWE1 172244Z 00010KT 17/03 A3005 RMK A01 T01740027  RH  037%=      5-min Rain = 0
KWE1 172245Z 01008KT 17/03 A3005 RMK A01 T01740027  RH  037%=      5-min Rain = 0
KWE1 172246Z 36008KT 17/03 A3005 RMK A01 T01740027  RH  037%=      5-min Rain = 0
KWE1 172247Z 00008KT 17/03 A3005 RMK A01 T01740028  RH  038%=      5-min Rain = 0
KWE1 172248Z 00007KT 17/03 A3005 RMK A01 T01740028  RH  038%=      5-min Rain = 0
KWE1 172249Z 00007KT 17/03 A3005 RMK A01 T01740028  RH  038%=      5-min Rain = 0
KWE1 172250Z 01008KT 17/03 A3005 RMK A01 T01740028  RH  038%=      5-min Rain = 0
KWE1 172251Z 01010KT 17/03 A3005 RMK A01 T01730028  RH  038%=      5-min Rain = 0
KWE1 172252Z 01009KT 17/03 A3005 RMK A01 T01730027  RH  038%=      5-min Rain = 0
KWE1 172253Z 01008KT 17/03 A3005 RMK A01 T01720027  RH  038%=      5-min Rain = 0
KWE1 172254Z 02008KT 17/03 A3005 RMK A01 T01720027  RH  038%=      5-min Rain = 0
KWE1 172255Z 02008KT 17/03 A3005 RMK A01 T01710028  RH  038%=      5-min Rain = 0
KWE1 172256Z 02008KT 17/03 A3005 RMK A01 T01710028  RH  038%=      5-min Rain = 0
KWE1 172257Z 02007KT 17/03 A3005 RMK A01 T01710027  RH  038%=      5-min Rain = 0
KWE1 172258Z 02006KT 17/03 A3005 RMK A01 T01700027  RH  038%=      5-min Rain = 0
KWE1 172259Z 02006KT 17/03 A3005 RMK A01 T01700027  RH  038%=      5-min Rain = 0
KWE1 172300Z 01009KT 17/03 A3005 RMK A01 T01700027  RH  038%=      5-min Rain = 0
KWE1 172301Z 00008KT 17/03 A3005 RMK A01 T01690027  RH  038%=      5-min Rain = 0
KWE1 172302Z 00007KT 17/03 A3005 RMK A01 T01680027  RH  039%=      5-min Rain = 0
KWE1 172303Z 01008KT 17/03 A3005 RMK A01 T01680027  RH  039%=      5-min Rain = 0
KWE1 172304Z 01007KT 17/03 A3005 RMK A01 T01680026  RH  039%=      5-min Rain = 0
KWE1 172305Z 01007KT 17/03 A3005 RMK A01 T01680026  RH  039%=      5-min Rain = 0
KWE1 172306Z 01007KT 17/03 A3005 RMK A01 T01680026  RH  039%=      5-min Rain = 0
KWE1 172307Z 01006KT 17/03 A3005 RMK A01 T01670026  RH  039%=      5-min Rain = 0
KWE1 172308Z 01006KT 17/03 A3005 RMK A01 T01670026  RH  039%=      5-min Rain = 0
KWE1 172309Z 01006KT 17/03 A3005 RMK A01 T01660026  RH  039%=      5-min Rain = 0
KWE1 172310Z 01006KT 17/03 A3005 RMK A01 T01650026  RH  039%=      5-min Rain = 0
KWE1 172311Z 01006KT 16/03 A3005 RMK A01 T01640026  RH  040%=      5-min Rain = 0
KWE1 172312Z 02006KT 16/03 A3005 RMK A01 T01630027  RH  040%=      5-min Rain = 0
KWE1 172313Z 01006KT 16/03 A3005 RMK A01 T01620026  RH  040%=      5-min Rain = 0
KWE1 172314Z 01007KT 16/03 A3005 RMK A01 T01610026  RH  040%=      5-min Rain = 0
KWE1 172315Z 01006KT 16/03 A3005 RMK A01 T01610026  RH  040%=      5-min Rain = 0
KWE1 172316Z 02006KT 16/03 A3005 RMK A01 T01600026  RH  041%=      5-min Rain = 0
KWE1 172317Z 02006KT 16/03 A3005 RMK A01 T01600026  RH  041%=      5-min Rain = 0
KWE1 172318Z 01005KT 16/03 A3005 RMK A01 T01590026  RH  041%=      5-min Rain = 0
KWE1 172319Z 02005KT 16/03 A3005 RMK A01 T01580026  RH  041%=      5-min Rain = 0
KWE1 172320Z 02005KT 16/03 A3005 RMK A01 T01570026  RH  041%=      5-min Rain = 0
KWE1 172321Z 02005KT 16/03 A3005 RMK A01 T01560027  RH  042%=      5-min Rain = 0
KWE1 172322Z 02006KT 15/03 A3005 RMK A01 T01540027  RH  042%=      5-min Rain = 0
KWE1 172323Z 02005KT 15/03 A3006 RMK A01 T01540027  RH  043%=      5-min Rain = 0
KWE1 172324Z 02005KT 15/03 A3006 RMK A01 T01520027  RH  043%=      5-min Rain = 0
KWE1 172325Z 02005KT 15/03 A3006 RMK A01 T01510026  RH  043%=      5-min Rain = 0
KWE1 172326Z 02005KT 15/03 A3006 RMK A01 T01500026  RH  043%=      5-min Rain = 0
KWE1 172327Z 02005KT 15/03 A3006 RMK A01 T01490026  RH  043%=      5-min Rain = 0
KWE1 172328Z 02005KT 15/03 A3006 RMK A01 T01480025  RH  044%=      5-min Rain = 0
KWE1 172329Z 02006KT 15/03 A3006 RMK A01 T01470025  RH  044%=      5-min Rain = 0
KWE1 172330Z 02006KT 15/03 A3006 RMK A01 T01460025  RH  044%=      5-min Rain = 0
KWE1 172331Z 02006KT 15/03 A3006 RMK A01 T01450025  RH  044%=      5-min Rain = 0
KWE1 172332Z 02006KT 14/02 A3006 RMK A01 T01430024  RH  045%=      5-min Rain = 0
KWE1 172333Z 02006KT 14/02 A3006 RMK A01 T01420024  RH  045%=      5-min Rain = 0
KWE1 172334Z 02006KT 14/02 A3005 RMK A01 T01410024  RH  045%=      5-min Rain = 0
KWE1 172335Z 02006KT 14/02 A3005 RMK A01 T01400024  RH  045%=      5-min Rain = 0
KWE1 172336Z 02006KT 14/02 A3005 RMK A01 T01390024  RH  046%=      5-min Rain = 0
KWE1 172337Z 02006KT 14/02 A3005 RMK A01 T01390024  RH  046%=      5-min Rain = 0
KWE1 172338Z 02006KT 14/02 A3005 RMK A01 T01380024  RH  046%=      5-min Rain = 0
KWE1 172339Z 02006KT 14/02 A3006 RMK A01 T01370023  RH  046%=      5-min Rain = 0
KWE1 172340Z 02006KT 14/02 A3006 RMK A01 T01370024  RH  046%=      5-min Rain = 0
KWE1 172341Z 02006KT 14/02 A3006 RMK A01 T01360024  RH  046%=      5-min Rain = 0
KWE1 172342Z 03005KT 14/02 A3006 RMK A01 T01350024  RH  047%=      5-min Rain = 0
KWE1 172343Z 02005KT 13/02 A3006 RMK A01 T01340024  RH  047%=      5-min Rain = 0
KWE1 172344Z 02006KT 13/02 A3006 RMK A01 T01340024  RH  047%=      5-min Rain = 0
KWE1 172345Z 02005KT 13/02 A3006 RMK A01 T01330024  RH  047%=      5-min Rain = 0
KWE1 172346Z 02005KT 13/02 A3006 RMK A01 T01330023  RH  048%=      5-min Rain = 0
KWE1 172347Z 02005KT 13/02 A3006 RMK A01 T01320024  RH  048%=      5-min Rain = 0
KWE1 172348Z 02005KT 13/02 A3006 RMK A01 T01320024  RH  048%=      5-min Rain = 0
KWE1 172349Z 03005KT 13/02 A3006 RMK A01 T01310024  RH  048%=      5-min Rain = 0
KWE1 172350Z 03004KT 13/02 A3006 RMK A01 T01310024  RH  048%=      5-min Rain = 0
KWE1 172351Z 03004KT 13/02 A3006 RMK A01 T01310023  RH  048%=      5-min Rain = 0
KWE1 172352Z 03004KT 13/02 A3006 RMK A01 T01310024  RH  048%=      5-min Rain = 0
KWE1 172353Z 02004KT 13/02 A3006 RMK A01 T01300024  RH  048%=      5-min Rain = 0
KWE1 172354Z 02004KT 13/02 A3006 RMK A01 T01310024  RH  048%=      5-min Rain = 0
KWE1 172355Z 02004KT 13/02 A3006 RMK A01 T01310023  RH  048%=      5-min Rain = 0
KWE1 172356Z 02004KT 13/02 A3006 RMK A01 T01300023  RH  048%=      5-min Rain = 0
KWE1 172357Z 02004KT 13/02 A3006 RMK A01 T01300023  RH  048%=      5-min Rain = 0
KWE1 172358Z 02004KT 13/02 A3006 RMK A01 T01300023  RH  048%=      5-min Rain = 0
KWE1 172359Z 02004KT 13/02 A3006 RMK A01 T01290023  RH  048%=      5-min Rain = 0
KWE1 180000Z 02004KT 13/02 A3006 RMK A01 T01290022  RH  048%=      5-min Rain = 0
KWE1 180001Z 02004KT 13/02 A3006 RMK A01 T01290023  RH  048%=      5-min Rain = 0
KWE1 180002Z 02004KT 13/02 A3006 RMK A01 T01280022  RH  048%=      5-min Rain = 0
KWE1 180003Z 02003KT 13/02 A3006 RMK A01 T01280022  RH  048%=      5-min Rain = 0
KWE1 180004Z 02004KT 13/02 A3006 RMK A01 T01280022  RH  049%=      5-min Rain = 0
KWE1 180005Z 02004KT 13/02 A3006 RMK A01 T01280022  RH  049%=      5-min Rain = 0
KWE1 180006Z 02004KT 13/02 A3006 RMK A01 T01280022  RH  049%=      5-min Rain = 0
KWE1 180007Z 02004KT 13/02 A3006 RMK A01 T01270022  RH  049%=      5-min Rain = 0
KWE1 180008Z 02004KT 13/02 A3006 RMK A01 T01260022  RH  049%=      5-min Rain = 0
KWE1 180009Z 02004KT 13/02 A3006 RMK A01 T01260022  RH  049%=      5-min Rain = 0
KWE1 180010Z 01003KT 13/02 A3006 RMK A01 T01250022  RH  049%=      5-min Rain = 0
KWE1 180011Z 01003KT 12/02 A3006 RMK A01 T01240021  RH  049%=      5-min Rain = 0
KWE1 180012Z 02003KT 12/02 A3006 RMK A01 T01240021  RH  050%=      5-min Rain = 0
KWE1 180013Z 02004KT 12/02 A3006 RMK A01 T01240022  RH  050%=      5-min Rain = 0
KWE1 180014Z 02004KT 12/02 A3006 RMK A01 T01230022  RH  050%=      5-min Rain = 0
KWE1 180015Z 02004KT 12/02 A3006 RMK A01 T01230022  RH  050%=      5-min Rain = 0
KWE1 180016Z 02004KT 12/02 A3006 RMK A01 T01230022  RH  050%=      5-min Rain = 0
KWE1 180017Z 02005KT 12/02 A3006 RMK A01 T01230022  RH  050%=      5-min Rain = 0
KWE1 180018Z 02004KT 12/02 A3006 RMK A01 T01230022  RH  050%=      5-min Rain = 0
KWE1 180019Z 02004KT 12/02 A3006 RMK A01 T01230022  RH  050%=      5-min Rain = 0
KWE1 180020Z 03004KT 12/02 A3006 RMK A01 T01230022  RH  050%=      5-min Rain = 0
KWE1 180021Z 03004KT 12/02 A3006 RMK A01 T01230022  RH  050%=      5-min Rain = 0
KWE1 180022Z 02004KT 12/02 A3006 RMK A01 T01230022  RH  050%=      5-min Rain = 0
KWE1 180023Z 02004KT 12/02 A3006 RMK A01 T01230022  RH  050%=      5-min Rain = 0
KWE1 180024Z 02004KT 12/02 A3006 RMK A01 T01220022  RH  050%=      5-min Rain = 0
KWE1 180025Z 03003KT 12/02 A3006 RMK A01 T01220022  RH  051%=      5-min Rain = 0
KWE1 180026Z 02003KT 12/02 A3006 RMK A01 T01210022  RH  051%=      5-min Rain = 0
KWE1 180027Z 02003KT 12/02 A3007 RMK A01 T01210022  RH  051%=      5-min Rain = 0
KWE1 180028Z 02003KT 12/02 A3007 RMK A01 T01210022  RH  051%=      5-min Rain = 0
KWE1 180029Z 02003KT 12/02 A3007 RMK A01 T01200023  RH  051%=      5-min Rain = 0
KWE1 180030Z 02003KT 12/02 A3007 RMK A01 T01200023  RH  051%=      5-min Rain = 0
KWE1 180031Z 02003KT 12/02 A3007 RMK A01 T01200022  RH  051%=      5-min Rain = 0
KWE1 180032Z 02003KT 12/02 A3007 RMK A01 T01200022  RH  051%=      5-min Rain = 0
KWE1 180033Z 02002KT 12/02 A3006 RMK A01 T01200023  RH  051%=      5-min Rain = 0
KWE1 180034Z 02002KT 12/02 A3007 RMK A01 T01200023  RH  052%=      5-min Rain = 0
KWE1 180035Z 01002KT 12/02 A3007 RMK A01 T01190022  RH  052%=      5-min Rain = 0
KWE1 180036Z 01003KT 12/02 A3007 RMK A01 T01190022  RH  052%=      5-min Rain = 0
KWE1 180037Z 01003KT 12/02 A3007 RMK A01 T01190023  RH  052%=      5-min Rain = 0
KWE1 180038Z 01002KT 12/02 A3007 RMK A01 T01180023  RH  052%=      5-min Rain = 0
KWE1 180039Z 01002KT 12/02 A3007 RMK A01 T01180023  RH  052%=      5-min Rain = 0
KWE1 180040Z 01003KT 12/02 A3007 RMK A01 T01180023  RH  052%=      5-min Rain = 0
KWE1 180041Z 01003KT 12/02 A3007 RMK A01 T01180023  RH  052%=      5-min Rain = 0
KWE1 180042Z 02003KT 12/02 A3007 RMK A01 T01170023  RH  052%=      5-min Rain = 0
KWE1 180043Z 01003KT 12/02 A3007 RMK A01 T01160023  RH  053%=      5-min Rain = 0
KWE1 180044Z 01003KT 12/02 A3007 RMK A01 T01150023  RH  053%=      5-min Rain = 0
KWE1 180045Z 01002KT 11/02 A3007 RMK A01 T01140023  RH  054%=      5-min Rain = 0
KWE1 180046Z 01002KT 11/02 A3007 RMK A01 T01120023  RH  054%=      5-min Rain = 0
KWE1 180047Z 00001KT 11/02 A3007 RMK A01 T01120023  RH  054%=      5-min Rain = 0
KWE1 180048Z 00000KT 11/02 A3007 RMK A01 T01110023  RH  055%=      5-min Rain = 0
KWE1 180049Z 35000KT 11/02 A3007 RMK A01 T01100024  RH  055%=      5-min Rain = 0
KWE1 180050Z 01000KT 11/02 A3008 RMK A01 T01100023  RH  055%=      5-min Rain = 0
KWE1 180051Z 00000KT 11/02 A3008 RMK A01 T01100024  RH  055%=      5-min Rain = 0
KWE1 180052Z 00000KT 11/02 A3008 RMK A01 T01100023  RH  055%=      5-min Rain = 0
KWE1 180053Z 00000KT 11/02 A3008 RMK A01 T01100023  RH  055%=      5-min Rain = 0
KWE1 180054Z 00000KT 11/02 A3008 RMK A01 T01100023  RH  055%=      5-min Rain = 0
KWE1 180055Z 00000KT 11/02 A3008 RMK A01 T01100023  RH  055%=      5-min Rain = 0
KWE1 180056Z 00000KT 11/02 A3008 RMK A01 T01100023  RH  055%=      5-min Rain = 0
KWE1 180057Z 00000KT 11/02 A3008 RMK A01 T01090023  RH  055%=      5-min Rain = 0
KWE1 180058Z 00000KT 11/02 A3008 RMK A01 T01100023  RH  055%=      5-min Rain = 0
KWE1 180059Z 00000KT 11/02 A3008 RMK A01 T01100023  RH  055%=      5-min Rain = 0
KWE1 180100Z 00000KT 11/02 A3008 RMK A01 T01100023  RH  055%=      5-min Rain = 0
KWE1 180101Z 00000KT 11/02 A3008 RMK A01 T01100024  RH  055%=      5-min Rain = 0
KWE1 180102Z 04000KT 11/02 A3008 RMK A01 T01100024  RH  055%=      5-min Rain = 0
KWE1 180103Z 04001KT 11/02 A3008 RMK A01 T01100022  RH  055%=      5-min Rain = 0
KWE1 180104Z 04001KT 11/02 A3008 RMK A01 T01090023  RH  056%=      5-min Rain = 0
KWE1 180105Z 04002KT 11/02 A3008 RMK A01 T01090024  RH  056%=      5-min Rain = 0
KWE1 180106Z 03002KT 11/02 A3008 RMK A01 T01090023  RH  056%=      5-min Rain = 0
KWE1 180107Z 03002KT 11/02 A3008 RMK A01 T01080022  RH  055%=      5-min Rain = 0
KWE1 180108Z 03002KT 11/02 A3008 RMK A01 T01080023  RH  056%=      5-min Rain = 0
KWE1 180109Z 02002KT 11/02 A3008 RMK A01 T01070023  RH  056%=      5-min Rain = 0
KWE1 180110Z 02002KT 11/02 A3008 RMK A01 T01060021  RH  055%=      5-min Rain = 0
KWE1 180111Z 03002KT 11/02 A3008 RMK A01 T01050020  RH  056%=      5-min Rain = 0
KWE1 180112Z 03002KT 11/02 A3008 RMK A01 T01050022  RH  057%=      5-min Rain = 0
KWE1 180113Z 02002KT 10/02 A3008 RMK A01 T01040023  RH  057%=      5-min Rain = 0
KWE1 180114Z 02002KT 10/02 A3008 RMK A01 T01030022  RH  057%=      5-min Rain = 0
KWE1 180115Z 01002KT 10/02 A3008 RMK A01 T01030023  RH  058%=      5-min Rain = 0
KWE1 180116Z 02002KT 10/02 A3008 RMK A01 T01030023  RH  058%=      5-min Rain = 0
KWE1 180117Z 02002KT 10/02 A3008 RMK A01 T01030023  RH  058%=      5-min Rain = 0
KWE1 180118Z 02002KT 10/02 A3008 RMK A01 T01020023  RH  058%=      5-min Rain = 0
KWE1 180119Z 02001KT 10/02 A3008 RMK A01 T01020022  RH  058%=      5-min Rain = 0
KWE1 180120Z 02002KT 10/02 A3008 RMK A01 T01020023  RH  058%=      5-min Rain = 0
KWE1 180121Z 02002KT 10/02 A3008 RMK A01 T01020023  RH  058%=      5-min Rain = 0
KWE1 180122Z 03002KT 10/02 A3008 RMK A01 T01030022  RH  057%=      5-min Rain = 0
KWE1 180123Z 03002KT 10/02 A3008 RMK A01 T01030023  RH  057%=      5-min Rain = 0
KWE1 180124Z 03002KT 10/02 A3008 RMK A01 T01030023  RH  058%=      5-min Rain = 0
KWE1 180125Z 03003KT 10/02 A3008 RMK A01 T01030023  RH  058%=      5-min Rain = 0
KWE1 180126Z 03003KT 10/02 A3008 RMK A01 T01030023  RH  057%=      5-min Rain = 0
KWE1 180127Z 02003KT 10/02 A3008 RMK A01 T01040022  RH  057%=      5-min Rain = 0
KWE1 180128Z 03003KT 11/02 A3008 RMK A01 T01050023  RH  057%=      5-min Rain = 0
KWE1 180129Z 03002KT 11/02 A3008 RMK A01 T01050022  RH  056%=      5-min Rain = 0
KWE1 180130Z 04002KT 10/02 A3008 RMK A01 T01030022  RH  057%=      5-min Rain = 0
KWE1 180131Z 03002KT 10/02 A3008 RMK A01 T01030023  RH  057%=      5-min Rain = 0
KWE1 180132Z 04002KT 10/02 A3008 RMK A01 T01030023  RH  057%=      5-min Rain = 0
KWE1 180133Z 04002KT 10/02 A3008 RMK A01 T01030023  RH  058%=      5-min Rain = 0
KWE1 180134Z 04002KT 10/02 A3008 RMK A01 T01040023  RH  057%=      5-min Rain = 0
KWE1 180135Z 04002KT 11/02 A3008 RMK A01 T01050023  RH  057%=      5-min Rain = 0
KWE1 180136Z 05002KT 11/02 A3008 RMK A01 T01050023  RH  057%=      5-min Rain = 0
KWE1 180137Z 05002KT 11/02 A3008 RMK A01 T01060024  RH  057%=      5-min Rain = 0
KWE1 180138Z 06002KT 11/02 A3008 RMK A01 T01070024  RH  056%=      5-min Rain = 0
KWE1 180139Z 05001KT 11/02 A3008 RMK A01 T01070024  RH  056%=      5-min Rain = 0
KWE1 180140Z 06001KT 11/02 A3008 RMK A01 T01070024  RH  057%=      5-min Rain = 0
KWE1 180141Z 07001KT 11/02 A3008 RMK A01 T01070023  RH  056%=      5-min Rain = 0
KWE1 180142Z 06001KT 11/02 A3008 RMK A01 T01070022  RH  056%=      5-min Rain = 0
KWE1 180143Z 07001KT 11/02 A3008 RMK A01 T01050021  RH  056%=      5-min Rain = 0
KWE1 180144Z 06001KT 10/02 A3008 RMK A01 T01040019  RH  056%=      5-min Rain = 0
KWE1 180145Z 06001KT 10/02 A3008 RMK A01 T01040020  RH  056%=      5-min Rain = 0
KWE1 180146Z 06001KT 10/02 A3008 RMK A01 T01040020  RH  056%=      5-min Rain = 0
KWE1 180147Z 06002KT 10/02 A3008 RMK A01 T01030019  RH  056%=      5-min Rain = 0
KWE1 180148Z 06002KT 10/02 A3008 RMK A01 T01020018  RH  056%=      5-min Rain = 0
KWE1 180149Z 06002KT 10/02 A3008 RMK A01 T01010019  RH  057%=      5-min Rain = 0
KWE1 180150Z 06002KT 10/02 A3008 RMK A01 T01020020  RH  057%=      5-min Rain = 0
KWE1 180151Z 06002KT 10/02 A3008 RMK A01 T01020019  RH  056%=      5-min Rain = 0
KWE1 180152Z 06002KT 10/02 A3008 RMK A01 T01030019  RH  056%=      5-min Rain = 0
KWE1 180153Z 06002KT 10/02 A3008 RMK A01 T01030019  RH  056%=      5-min Rain = 0
KWE1 180154Z 06002KT 10/02 A3008 RMK A01 T01030018  RH  056%=      5-min Rain = 0
KWE1 180155Z 06002KT 10/02 A3008 RMK A01 T01030018  RH  056%=      5-min Rain = 0
KWE1 180156Z 06003KT 10/02 A3008 RMK A01 T01030018  RH  056%=      5-min Rain = 0
KWE1 180157Z 06003KT 10/02 A3008 RMK A01 T01040018  RH  055%=      5-min Rain = 0
KWE1 180158Z 05003KT 10/02 A3008 RMK A01 T01030017  RH  055%=      5-min Rain = 0
KWE1 180159Z 05003KT 10/02 A3008 RMK A01 T01020017  RH  056%=      5-min Rain = 0
KWE1 180200Z 05003KT 10/02 A3008 RMK A01 T01000017  RH  056%=      5-min Rain = 0
KWE1 180201Z 05003KT 10/02 A3007 RMK A01 T00970017  RH  057%=      5-min Rain = 0
KWE1 180202Z 05003KT 09/02 A3008 RMK A01 T00930017  RH  059%=      5-min Rain = 0
KWE1 180203Z 05003KT 09/02 A3008 RMK A01 T00890016  RH  060%=      5-min Rain = 0
KWE1 180204Z 04003KT 09/02 A3008 RMK A01 T00870017  RH  061%=      5-min Rain = 0
KWE1 180205Z 04003KT 09/02 A3008 RMK A01 T00870016  RH  061%=      5-min Rain = 0
KWE1 180206Z 03003KT 09/02 A3008 RMK A01 T00870015  RH  061%=      5-min Rain = 0
KWE1 180207Z 03002KT 09/02 A3008 RMK A01 T00890016  RH  060%=      5-min Rain = 0
KWE1 180208Z 01002KT 09/02 A3008 RMK A01 T00900016  RH  060%=      5-min Rain = 0
KWE1 180209Z 03002KT 09/02 A3008 RMK A01 T00910016  RH  060%=      5-min Rain = 0
KWE1 180210Z 02002KT 09/02 A3008 RMK A01 T00910016  RH  059%=      5-min Rain = 0
KWE1 180211Z 03002KT 09/02 A3008 RMK A01 T00910016  RH  059%=      5-min Rain = 0
KWE1 180212Z 03003KT 09/02 A3008 RMK A01 T00920017  RH  059%=      5-min Rain = 0
KWE1 180213Z 03003KT 09/02 A3008 RMK A01 T00920016  RH  059%=      5-min Rain = 0
KWE1 180214Z 03002KT 09/02 A3008 RMK A01 T00920017  RH  059%=      5-min Rain = 0
KWE1 180215Z 03003KT 09/02 A3008 RMK A01 T00920017  RH  059%=      5-min Rain = 0
KWE1 180216Z 03003KT 09/02 A3008 RMK A01 T00920018  RH  060%=      5-min Rain = 0
KWE1 180217Z 03003KT 09/02 A3008 RMK A01 T00920018  RH  060%=      5-min Rain = 0
KWE1 180218Z 03003KT 09/02 A3008 RMK A01 T00920018  RH  060%=      5-min Rain = 0
KWE1 180219Z 03003KT 09/02 A3008 RMK A01 T00910018  RH  060%=      5-min Rain = 0
KWE1 180220Z 03003KT 09/02 A3008 RMK A01 T00910018  RH  060%=      5-min Rain = 0
KWE1 180221Z 03002KT 09/02 A3008 RMK A01 T00900018  RH  060%=      5-min Rain = 0
KWE1 180222Z 03003KT 09/02 A3008 RMK A01 T00890018  RH  061%=      5-min Rain = 0
KWE1 180223Z 03003KT 09/02 A3008 RMK A01 T00890018  RH  061%=      5-min Rain = 0
KWE1 180224Z 03003KT 09/02 A3008 RMK A01 T00880018  RH  062%=      5-min Rain = 0
KWE1 180225Z 03003KT 09/02 A3008 RMK A01 T00870018  RH  062%=      5-min Rain = 0
KWE1 180226Z 03003KT 09/02 A3008 RMK A01 T00860018  RH  062%=      5-min Rain = 0
KWE1 180227Z 02002KT 09/02 A3008 RMK A01 T00850017  RH  062%=      5-min Rain = 0
KWE1 180228Z 03003KT 09/02 A3008 RMK A01 T00850017  RH  062%=      5-min Rain = 0
KWE1 180229Z 03003KT 08/02 A3008 RMK A01 T00840017  RH  063%=      5-min Rain = 0
KWE1 180230Z 04003KT 08/02 A3008 RMK A01 T00840018  RH  063%=      5-min Rain = 0
KWE1 180231Z 04003KT 08/02 A3008 RMK A01 T00830018  RH  063%=      5-min Rain = 0
KWE1 180232Z 03003KT 08/02 A3008 RMK A01 T00830018  RH  063%=      5-min Rain = 0
KWE1 180233Z 04002KT 08/02 A3008 RMK A01 T00830017  RH  063%=      5-min Rain = 0
KWE1 180234Z 04002KT 08/02 A3008 RMK A01 T00830017  RH  063%=      5-min Rain = 0
KWE1 180235Z 03001KT 08/02 A3008 RMK A01 T00820017  RH  063%=      5-min Rain = 0
KWE1 180236Z 04001KT 08/02 A3008 RMK A01 T00820017  RH  063%=      5-min Rain = 0
KWE1 180237Z 04001KT 08/02 A3008 RMK A01 T00820017  RH  064%=      5-min Rain = 0
KWE1 180238Z 03000KT 08/02 A3009 RMK A01 T00820018  RH  064%=      5-min Rain = 0
KWE1 180239Z 00000KT 08/02 A3009 RMK A01 T00830018  RH  064%=      5-min Rain = 0
KWE1 180240Z 00000KT 08/02 A3009 RMK A01 T00830018  RH  063%=      5-min Rain = 0
KWE1 180241Z 00000KT 08/02 A3009 RMK A01 T00830018  RH  063%=      5-min Rain = 0
KWE1 180242Z 00000KT 08/02 A3009 RMK A01 T00820018  RH  064%=      5-min Rain = 0
KWE1 180243Z 00000KT 08/02 A3009 RMK A01 T00820019  RH  064%=      5-min Rain = 0
KWE1 180244Z 00000KT 08/02 A3009 RMK A01 T00820019  RH  065%=      5-min Rain = 0
KWE1 180245Z 03000KT 08/02 A3009 RMK A01 T00820019  RH  065%=      5-min Rain = 0
KWE1 180246Z 03001KT 08/02 A3009 RMK A01 T00820019  RH  064%=      5-min Rain = 0
KWE1 180247Z 03001KT 08/02 A3009 RMK A01 T00820019  RH  064%=      5-min Rain = 0
KWE1 180248Z 03001KT 08/02 A3009 RMK A01 T00830019  RH  064%=      5-min Rain = 0
KWE1 180249Z 03001KT 08/02 A3009 RMK A01 T00820017  RH  064%=      5-min Rain = 0
KWE1 180250Z 02001KT 08/02 A3009 RMK A01 T00820017  RH  064%=      5-min Rain = 0
KWE1 180251Z 01001KT 08/02 A3009 RMK A01 T00800016  RH  064%=      5-min Rain = 0
KWE1 180252Z 02002KT 08/02 A3009 RMK A01 T00790016  RH  064%=      5-min Rain = 0
KWE1 180253Z 03002KT 08/02 A3009 RMK A01 T00790017  RH  065%=      5-min Rain = 0
KWE1 180254Z 03002KT 08/02 A3009 RMK A01 T00780017  RH  065%=      5-min Rain = 0
KWE1 180255Z 02002KT 08/02 A3009 RMK A01 T00780017  RH  065%=      5-min Rain = 0
KWE1 180256Z 02002KT 08/02 A3009 RMK A01 T00770016  RH  065%=      5-min Rain = 0
KWE1 180257Z 02002KT 08/02 A3009 RMK A01 T00770016  RH  066%=      5-min Rain = 0
KWE1 180258Z 01001KT 08/02 A3009 RMK A01 T00760017  RH  066%=      5-min Rain = 0
KWE1 180259Z 02001KT 08/02 A3009 RMK A01 T00760017  RH  066%=      5-min Rain = 0
KWE1 180300Z 02001KT 08/02 A3009 RMK A01 T00760017  RH  066%=      5-min Rain = 0
KWE1 180301Z 02001KT 08/02 A3009 RMK A01 T00760018  RH  067%=      5-min Rain = 0
KWE1 180302Z 01001KT 08/02 A3009 RMK A01 T00760018  RH  067%=      5-min Rain = 0
KWE1 180303Z 01002KT 08/02 A3009 RMK A01 T00760018  RH  067%=      5-min Rain = 0
KWE1 180304Z 01001KT 08/02 A3009 RMK A01 T00760018  RH  067%=      5-min Rain = 0
KWE1 180305Z 01001KT 08/02 A3009 RMK A01 T00760019  RH  067%=      5-min Rain = 0
KWE1 180306Z 01001KT 08/02 A3009 RMK A01 T00760018  RH  067%=      5-min Rain = 0
KWE1 180307Z 02001KT 08/02 A3009 RMK A01 T00760018  RH  067%=      5-min Rain = 0
KWE1 180308Z 02001KT 08/02 A3009 RMK A01 T00760019  RH  067%=      5-min Rain = 0
KWE1 180309Z 02001KT 08/02 A3009 RMK A01 T00760019  RH  067%=      5-min Rain = 0
KWE1 180310Z 02000KT 08/02 A3009 RMK A01 T00760020  RH  068%=      5-min Rain = 0
KWE1 180311Z 03000KT 08/02 A3009 RMK A01 T00770021  RH  068%=      5-min Rain = 0
KWE1 180312Z 00000KT 08/02 A3009 RMK A01 T00780021  RH  067%=      5-min Rain = 0
KWE1 180313Z 00000KT 08/02 A3009 RMK A01 T00790021  RH  067%=      5-min Rain = 0
KWE1 180314Z 00000KT 08/02 A3009 RMK A01 T00790021  RH  067%=      5-min Rain = 0
KWE1 180315Z 00000KT 08/02 A3009 RMK A01 T00800021  RH  066%=      5-min Rain = 0
KWE1 180316Z 00000KT 08/02 A3009 RMK A01 T00810022  RH  066%=      5-min Rain = 0
KWE1 180317Z 00000KT 08/02 A3009 RMK A01 T00820023  RH  066%=      5-min Rain = 0
KWE1 180318Z 00000KT 08/02 A3009 RMK A01 T00830022  RH  066%=      5-min Rain = 0
KWE1 180319Z 00000KT 08/02 A3009 RMK A01 T00820021  RH  065%=      5-min Rain = 0
KWE1 180320Z 00000KT 08/02 A3009 RMK A01 T00810020  RH  066%=      5-min Rain = 0
KWE1 180321Z 00000KT 08/02 A3009 RMK A01 T00790019  RH  066%=      5-min Rain = 0
KWE1 180322Z 00000KT 08/02 A3009 RMK A01 T00770019  RH  066%=      5-min Rain = 0
KWE1 180323Z 00000KT 08/02 A3009 RMK A01 T00770019  RH  067%=      5-min Rain = 0
KWE1 180324Z 05000KT 08/02 A3008 RMK A01 T00770019  RH  067%=      5-min Rain = 0
KWE1 180325Z 05000KT 08/02 A3008 RMK A01 T00770020  RH  067%=      5-min Rain = 0
KWE1 180326Z 03001KT 08/02 A3008 RMK A01 T00780020  RH  067%=      5-min Rain = 0
KWE1 180327Z 00000KT 08/02 A3008 RMK A01 T00780019  RH  066%=      5-min Rain = 0
KWE1 180328Z 03001KT 08/02 A3008 RMK A01 T00770017  RH  066%=      5-min Rain = 0
KWE1 180329Z 00000KT 08/02 A3008 RMK A01 T00760016  RH  066%=      5-min Rain = 0
KWE1 180330Z 02001KT 08/02 A3009 RMK A01 T00750017  RH  067%=      5-min Rain = 0
KWE1 180331Z 01000KT 08/02 A3009 RMK A01 T00750017  RH  067%=      5-min Rain = 0
KWE1 180332Z 36000KT 07/02 A3009 RMK A01 T00740016  RH  067%=      5-min Rain = 0
KWE1 180333Z 35000KT 07/02 A3009 RMK A01 T00720015  RH  067%=      5-min Rain = 0
KWE1 180334Z 33000KT 07/02 A3009 RMK A01 T00720016  RH  067%=      5-min Rain = 0
KWE1 180335Z 00000KT 07/02 A3009 RMK A01 T00720016  RH  068%=      5-min Rain = 0
KWE1 180336Z 00000KT 07/02 A3009 RMK A01 T00720018  RH  068%=      5-min Rain = 0
KWE1 180337Z 00000KT 07/02 A3008 RMK A01 T00720018  RH  068%=      5-min Rain = 0
KWE1 180338Z 22000KT 07/02 A3008 RMK A01 T00700016  RH  069%=      5-min Rain = 0
KWE1 180339Z 21001KT 07/02 A3008 RMK A01 T00680015  RH  069%=      5-min Rain = 0
KWE1 180340Z 21002KT 07/01 A3009 RMK A01 T00660013  RH  069%=      5-min Rain = 0
KWE1 180341Z 21002KT 06/01 A3009 RMK A01 T00630011  RH  069%=      5-min Rain = 0
KWE1 180342Z 20002KT 06/01 A3009 RMK A01 T00610011  RH  070%=      5-min Rain = 0
KWE1 180343Z 20002KT 06/01 A3009 RMK A01 T00610014  RH  072%=      5-min Rain = 0
KWE1 180344Z 21002KT 06/02 A3009 RMK A01 T00630017  RH  072%=      5-min Rain = 0
KWE1 180345Z 21003KT 06/02 A3009 RMK A01 T00640017  RH  072%=      5-min Rain = 0
KWE1 180346Z 21003KT 07/02 A3009 RMK A01 T00650017  RH  071%=      5-min Rain = 0
KWE1 180347Z 22003KT 07/02 A3009 RMK A01 T00670018  RH  071%=      5-min Rain = 0
KWE1 180348Z 22003KT 07/02 A3009 RMK A01 T00680016  RH  069%=      5-min Rain = 0
KWE1 180349Z 22004KT 07/01 A3009 RMK A01 T00670014  RH  069%=      5-min Rain = 0
KWE1 180350Z 22003KT 07/01 A3009 RMK A01 T00660014  RH  069%=      5-min Rain = 0
KWE1 180351Z 22003KT 07/01 A3009 RMK A01 T00650014  RH  070%=      5-min Rain = 0
KWE1 180352Z 22003KT 07/01 A3009 RMK A01 T00650013  RH  070%=      5-min Rain = 0
KWE1 180353Z 22003KT 07/01 A3009 RMK A01 T00650014  RH  070%=      5-min Rain = 0
KWE1 180354Z 22003KT 06/01 A3009 RMK A01 T00640014  RH  070%=      5-min Rain = 0
KWE1 180355Z 22003KT 07/02 A3009 RMK A01 T00650015  RH  071%=      5-min Rain = 0
KWE1 180356Z 22003KT 06/02 A3009 RMK A01 T00640015  RH  071%=      5-min Rain = 0
KWE1 180357Z 22002KT 07/02 A3009 RMK A01 T00650016  RH  071%=      5-min Rain = 0
KWE1 180358Z 22002KT 07/02 A3009 RMK A01 T00650016  RH  071%=      5-min Rain = 0
KWE1 180359Z 21002KT 07/02 A3009 RMK A01 T00660016  RH  071%=      5-min Rain = 0
KWE1 180400Z 21001KT 07/02 A3009 RMK A01 T00660016  RH  071%=      5-min Rain = 0
KWE1 180401Z 22001KT 07/02 A3009 RMK A01 T00670017  RH  070%=      5-min Rain = 0
KWE1 180402Z 23001KT 07/02 A3008 RMK A01 T00680018  RH  070%=      5-min Rain = 0
KWE1 180403Z 23001KT 07/02 A3008 RMK A01 T00700019  RH  070%=      5-min Rain = 0
KWE1 180404Z 24001KT 07/02 A3008 RMK A01 T00700017  RH  069%=      5-min Rain = 0
KWE1 180405Z 24001KT 07/02 A3008 RMK A01 T00690015  RH  069%=      5-min Rain = 0
KWE1 180406Z 26001KT 07/02 A3008 RMK A01 T00670015  RH  069%=      5-min Rain = 0
KWE1 180407Z 27001KT 07/02 A3008 RMK A01 T00660015  RH  070%=      5-min Rain = 0
KWE1 180408Z 27001KT 07/01 A3008 RMK A01 T00650014  RH  070%=      5-min Rain = 0
KWE1 180409Z 28001KT 06/01 A3008 RMK A01 T00640014  RH  070%=      5-min Rain = 0
KWE1 180410Z 30001KT 06/01 A3008 RMK A01 T00630014  RH  071%=      5-min Rain = 0
KWE1 180411Z 30001KT 06/01 A3008 RMK A01 T00620013  RH  071%=      5-min Rain = 0
KWE1 180412Z 29001KT 06/01 A3008 RMK A01 T00610013  RH  071%=      5-min Rain = 0
KWE1 180413Z 28001KT 06/01 A3008 RMK A01 T00600013  RH  071%=      5-min Rain = 0
KWE1 180414Z 28001KT 06/01 A3008 RMK A01 T00600012  RH  072%=      5-min Rain = 0
KWE1 180415Z 27001KT 06/01 A3008 RMK A01 T00590011  RH  072%=      5-min Rain = 0
KWE1 180416Z 27001KT 06/01 A3008 RMK A01 T00580011  RH  072%=      5-min Rain = 0
KWE1 180417Z 26002KT 06/01 A3008 RMK A01 T00570011  RH  072%=      5-min Rain = 0
KWE1 180418Z 26001KT 06/01 A3008 RMK A01 T00570012  RH  073%=      5-min Rain = 0
KWE1 180419Z 25002KT 06/01 A3008 RMK A01 T00570012  RH  073%=      5-min Rain = 0
KWE1 180420Z 26001KT 06/01 A3008 RMK A01 T00570012  RH  073%=      5-min Rain = 0
KWE1 180421Z 27001KT 06/01 A3008 RMK A01 T00560012  RH  073%=      5-min Rain = 0
KWE1 180422Z 28001KT 06/01 A3008 RMK A01 T00560013  RH  074%=      5-min Rain = 0
KWE1 180423Z 30001KT 06/01 A3008 RMK A01 T00560012  RH  073%=      5-min Rain = 0
KWE1 180424Z 29002KT 06/01 A3008 RMK A01 T00560012  RH  073%=      5-min Rain = 0
KWE1 180425Z 29002KT 06/01 A3008 RMK A01 T00550012  RH  074%=      5-min Rain = 0
KWE1 180426Z 27002KT 06/01 A3008 RMK A01 T00550012  RH  074%=      5-min Rain = 0
KWE1 180427Z 26002KT 05/01 A3008 RMK A01 T00540011  RH  074%=      5-min Rain = 0
KWE1 180428Z 26002KT 05/01 A3008 RMK A01 T00530012  RH  075%=      5-min Rain = 0
KWE1 180429Z 26002KT 05/01 A3008 RMK A01 T00540014  RH  075%=      5-min Rain = 0
KWE1 180430Z 27002KT 06/02 A3008 RMK A01 T00550016  RH  076%=      5-min Rain = 0
KWE1 180431Z 27002KT 06/02 A3008 RMK A01 T00570016  RH  075%=      5-min Rain = 0
KWE1 180432Z 27002KT 06/02 A3008 RMK A01 T00580017  RH  075%=      5-min Rain = 0
KWE1 180433Z 26002KT 06/02 A3008 RMK A01 T00590017  RH  074%=      5-min Rain = 0
KWE1 180434Z 26002KT 06/02 A3008 RMK A01 T00600016  RH  073%=      5-min Rain = 0
KWE1 180435Z 26002KT 06/02 A3008 RMK A01 T00600015  RH  073%=      5-min Rain = 0
KWE1 180436Z 23001KT 06/01 A3008 RMK A01 T00590013  RH  072%=      5-min Rain = 0
KWE1 180437Z 21001KT 06/01 A3008 RMK A01 T00570010  RH  072%=      5-min Rain = 0
KWE1 180438Z 21002KT 05/01 A3008 RMK A01 T00540008  RH  072%=      5-min Rain = 0
KWE1 180439Z 21003KT 05/01 A3008 RMK A01 T00510007  RH  073%=      5-min Rain = 0
KWE1 180440Z 22004KT 05/01 A3008 RMK A01 T00490007  RH  075%=      5-min Rain = 0
KWE1 180441Z 22004KT 05/01 A3008 RMK A01 T00480009  RH  076%=      5-min Rain = 0
KWE1 180442Z 22004KT 05/01 A3008 RMK A01 T00480010  RH  077%=      5-min Rain = 0
KWE1 180443Z 22004KT 05/01 A3008 RMK A01 T00480011  RH  077%=      5-min Rain = 0
KWE1 180444Z 21004KT 05/01 A3008 RMK A01 T00470011  RH  077%=      5-min Rain = 0
KWE1 180445Z 21004KT 05/01 A3008 RMK A01 T00480012  RH  078%=      5-min Rain = 0
KWE1 180446Z 21005KT 05/01 A3008 RMK A01 T00480013  RH  078%=      5-min Rain = 0
KWE1 180447Z 22005KT 05/02 A3008 RMK A01 T00500015  RH  078%=      5-min Rain = 0
KWE1 180448Z 22005KT 05/02 A3008 RMK A01 T00510015  RH  078%=      5-min Rain = 0
KWE1 180449Z 21005KT 05/01 A3008 RMK A01 T00510014  RH  077%=      5-min Rain = 0
KWE1 180450Z 22005KT 05/01 A3008 RMK A01 T00510014  RH  077%=      5-min Rain = 0
KWE1 180451Z 22004KT 05/01 A3008 RMK A01 T00510014  RH  077%=      5-min Rain = 0
KWE1 180452Z 23004KT 05/01 A3008 RMK A01 T00520014  RH  077%=      5-min Rain = 0
KWE1 180453Z 23004KT 05/02 A3008 RMK A01 T00530016  RH  077%=      5-min Rain = 0
KWE1 180454Z 23004KT 05/02 A3007 RMK A01 T00530015  RH  077%=      5-min Rain = 0
KWE1 180455Z 23004KT 05/02 A3007 RMK A01 T00530015  RH  077%=      5-min Rain = 0
KWE1 180456Z 23003KT 05/02 A3007 RMK A01 T00530015  RH  076%=      5-min Rain = 0
KWE1 180457Z 23003KT 05/02 A3007 RMK A01 T00520015  RH  077%=      5-min Rain = 0
KWE1 180458Z 24003KT 05/02 A3007 RMK A01 T00520015  RH  077%=      5-min Rain = 0
KWE1 180459Z 25003KT 05/01 A3007 RMK A01 T00520014  RH  077%=      5-min Rain = 0
KWE1 180500Z 25002KT 05/01 A3007 RMK A01 T00510014  RH  077%=      5-min Rain = 0
KWE1 180501Z 26001KT 05/01 A3007 RMK A01 T00510013  RH  077%=      5-min Rain = 0
KWE1 180502Z 26001KT 05/01 A3007 RMK A01 T00510013  RH  076%=      5-min Rain = 0
KWE1 180503Z 27001KT 05/01 A3007 RMK A01 T00510013  RH  077%=      5-min Rain = 0
KWE1 180504Z 26002KT 05/01 A3007 RMK A01 T00510014  RH  077%=      5-min Rain = 0
KWE1 180505Z 27002KT 05/01 A3007 RMK A01 T00510014  RH  077%=      5-min Rain = 0
KWE1 180506Z 28002KT 05/01 A3007 RMK A01 T00510014  RH  077%=      5-min Rain = 0
KWE1 180507Z 28003KT 05/01 A3007 RMK A01 T00520014  RH  077%=      5-min Rain = 0
KWE1 180508Z 28003KT 05/02 A3007 RMK A01 T00520015  RH  077%=      5-min Rain = 0
KWE1 180509Z 26002KT 05/02 A3007 RMK A01 T00530015  RH  076%=      5-min Rain = 0
KWE1 180510Z 26003KT 05/02 A3007 RMK A01 T00530015  RH  076%=      5-min Rain = 0
KWE1 180511Z 25003KT 05/01 A3007 RMK A01 T00530014  RH  076%=      5-min Rain = 0
KWE1 180512Z 25004KT 05/01 A3007 RMK A01 T00530014  RH  076%=      5-min Rain = 0
KWE1 180513Z 24004KT 05/01 A3007 RMK A01 T00530014  RH  076%=      5-min Rain = 0
KWE1 180514Z 24004KT 05/01 A3006 RMK A01 T00530014  RH  076%=      5-min Rain = 0
KWE1 180515Z 24004KT 05/01 A3006 RMK A01 T00530014  RH  076%=      5-min Rain = 0
KWE1 180516Z 24004KT 05/01 A3006 RMK A01 T00530014  RH  076%=      5-min Rain = 0
KWE1 180517Z 24004KT 05/01 A3006 RMK A01 T00530014  RH  076%=      5-min Rain = 0
KWE1 180518Z 23005KT 05/01 A3006 RMK A01 T00520014  RH  076%=      5-min Rain = 0
KWE1 180519Z 22005KT 05/01 A3006 RMK A01 T00520014  RH  077%=      5-min Rain = 0
KWE1 180520Z 22007KT 05/01 A3006 RMK A01 T00510013  RH  077%=      5-min Rain = 0
KWE1 180521Z 22007KT 05/01 A3006 RMK A01 T00500013  RH  077%=      5-min Rain = 0
KWE1 180522Z 22008KT 05/01 A3006 RMK A01 T00500013  RH  077%=      5-min Rain = 0
KWE1 180523Z 21008KT 05/02 A3006 RMK A01 T00500015  RH  078%=      5-min Rain = 0
KWE1 180524Z 22007KT 05/02 A3006 RMK A01 T00500015  RH  078%=      5-min Rain = 0
KWE1 180525Z 22006KT 05/02 A3007 RMK A01 T00510016  RH  078%=      5-min Rain = 0
KWE1 180526Z 23006KT 05/02 A3007 RMK A01 T00520017  RH  078%=      5-min Rain = 0
KWE1 180527Z 23006KT 05/02 A3007 RMK A01 T00520017  RH  078%=      5-min Rain = 0
KWE1 180528Z 22006KT 05/02 A3007 RMK A01 T00520017  RH  078%=      5-min Rain = 0
KWE1 180529Z 22006KT 05/02 A3007 RMK A01 T00520017  RH  078%=      5-min Rain = 0
KWE1 180530Z 22006KT 05/02 A3006 RMK A01 T00520017  RH  078%=      5-min Rain = 0
KWE1 180531Z 22006KT 05/02 A3006 RMK A01 T00520017  RH  078%=      5-min Rain = 0
KWE1 180532Z 22006KT 05/02 A3006 RMK A01 T00520017  RH  078%=      5-min Rain = 0
KWE1 180533Z 22006KT 05/02 A3006 RMK A01 T00520016  RH  078%=      5-min Rain = 0
KWE1 180534Z 22006KT 05/02 A3006 RMK A01 T00520016  RH  077%=      5-min Rain = 0
KWE1 180535Z 22006KT 05/02 A3006 RMK A01 T00520016  RH  077%=      5-min Rain = 0
KWE1 180536Z 22006KT 05/02 A3006 RMK A01 T00520016  RH  077%=      5-min Rain = 0
KWE1 180537Z 22007KT 05/02 A3006 RMK A01 T00510015  RH  077%=      5-min Rain = 0
KWE1 180538Z 22007KT 05/02 A3006 RMK A01 T00510015  RH  078%=      5-min Rain = 0
KWE1 180539Z 22007KT 05/02 A3006 RMK A01 T00500015  RH  078%=      5-min Rain = 0
KWE1 180540Z 22008KT 05/02 A3006 RMK A01 T00500015  RH  078%=      5-min Rain = 0
KWE1 180541Z 22008KT 05/02 A3006 RMK A01 T00500016  RH  079%=      5-min Rain = 0
KWE1 180542Z 22007KT 05/02 A3006 RMK A01 T00500016  RH  079%=      5-min Rain = 0
KWE1 180543Z 22007KT 05/02 A3006 RMK A01 T00500015  RH  078%=      5-min Rain = 0
KWE1 180544Z 22007KT 05/02 A3006 RMK A01 T00510015  RH  078%=      5-min Rain = 0
KWE1 180545Z 22007KT 05/02 A3006 RMK A01 T00510015  RH  077%=      5-min Rain = 0
KWE1 180546Z 21006KT 05/01 A3006 RMK A01 T00510014  RH  077%=      5-min Rain = 0
KWE1 180547Z 21007KT 05/01 A3006 RMK A01 T00500014  RH  077%=      5-min Rain = 0
KWE1 180548Z 22006KT 05/01 A3006 RMK A01 T00500014  RH  077%=      5-min Rain = 0
KWE1 180549Z 22006KT 05/01 A3006 RMK A01 T00500013  RH  077%=      5-min Rain = 0
KWE1 180550Z 22006KT 05/01 A3006 RMK A01 T00500013  RH  077%=      5-min Rain = 0
KWE1 180551Z 22006KT 05/01 A3006 RMK A01 T00500013  RH  077%=      5-min Rain = 0
KWE1 180552Z 22006KT 05/01 A3006 RMK A01 T00490012  RH  077%=      5-min Rain = 0
KWE1 180553Z 22006KT 05/01 A3006 RMK A01 T00490013  RH  077%=      5-min Rain = 0
KWE1 180554Z 22005KT 05/01 A3006 RMK A01 T00500013  RH  077%=      5-min Rain = 0
KWE1 180555Z 22006KT 05/01 A3006 RMK A01 T00500013  RH  077%=      5-min Rain = 0
KWE1 180556Z 22005KT 05/01 A3006 RMK A01 T00510013  RH  077%=      5-min Rain = 0
KWE1 180557Z 21005KT 05/01 A3005 RMK A01 T00520013  RH  076%=      5-min Rain = 0
KWE1 180558Z 21005KT 05/01 A3005 RMK A01 T00510013  RH  076%=      5-min Rain = 0
KWE1 180559Z 22005KT 05/01 A3005 RMK A01 T00510012  RH  076%=      5-min Rain = 0

Page generated in 0.1216 seconds.